GFSGBSN_sfc_wetblb_000.txt.gz
Wetbulb
56.46 56.81 56.68 56.52 56.48 56.23 56.42 55.92 55.37 55.28 54.83 54.62 54.77 54.85 54.95 55.09 55.02 54.99 55.21 54.83 54.56 54.60 55.17 55.24 55.15 56.17 58.62 53.86 52.76 58.93 59.92 60.51 56.86 55.01 53.76 53.09 51.61 51.33 48.20 49.15 50.30 48.55 49.29 50.97 50.77 49.68 49.73
56.68 56.89 56.89 56.45 56.27 56.13 56.26 55.85 55.35 55.33 55.05 54.75 54.74 54.72 54.70 54.70 55.09 55.15 55.13 54.79 54.42 54.30 55.15 55.12 55.87 56.10 57.34 50.19 59.07 59.43 57.05 56.71 57.12 55.87 54.59 54.31 52.34 53.93 51.30 50.07 49.37 51.02 50.91 50.93 51.55 50.66 50.38
56.80 56.95 56.89 56.72 56.42 56.06 55.90 55.91 55.70 55.28 55.03 54.75 54.89 54.72 54.56 54.62 54.62 54.58 54.89 54.89 54.36 54.15 54.93 54.94 56.05 58.68 55.38 52.86 58.70 59.39 58.12 56.98 57.33 55.93 53.99 53.43 53.94 52.54 51.82 50.63 52.19 50.55 47.66 49.68 49.55 50.10 49.51
56.83 56.71 56.58 56.44 56.17 55.94 55.78 55.68 55.48 55.03 54.91 54.56 54.46 54.54 54.16 54.12 54.18 54.28 54.46 54.38 54.22 54.26 55.17 55.10 56.05 59.41 52.34 58.38 59.74 57.77 59.14 57.71 58.01 57.22 55.70 55.67 56.08 54.23 53.01 52.95 49.99 47.56 47.73 43.89 47.65 48.56 49.08
56.50 56.54 56.38 56.44 55.97 55.64 55.62 55.60 54.99 54.83 54.42 54.38 54.30 54.26 53.99 53.79 53.55 53.85 53.89 53.97 53.93 54.54 55.56 55.87 59.89 57.00 51.18 59.87 55.82 57.10 57.77 55.64 56.52 57.16 57.05 55.05 55.13 51.41 51.40 48.46 46.05 45.68 41.53 41.79 43.51 47.88 46.87
55.83 56.24 56.35 56.33 55.83 55.85 55.86 55.58 54.81 54.40 54.20 54.03 54.17 54.14 54.02 53.61 53.46 53.20 53.47 54.40 54.66 55.90 57.59 57.52 56.83 53.61 54.27 51.76 54.77 55.25 57.78 56.93 54.74 55.68 54.17 53.22 52.35 49.06 48.21 46.19 39.68 40.50 40.92 42.25 42.11 45.30 45.73
55.35 55.84 56.03 55.90 55.84 55.98 55.96 55.63 54.71 53.95 53.99 53.91 53.85 54.01 53.93 53.56 53.83 53.26 56.26 60.61 56.70 54.39 56.25 51.80 51.67 51.39 51.87 54.87 55.90 54.59 55.57 56.02 54.75 53.25 48.70 50.28 47.83 43.92 44.88 45.50 44.45 43.59 42.45 42.28 44.17 45.29 43.82
55.26 55.07 55.34 55.58 55.76 55.88 55.69 55.57 54.48 53.83 53.70 53.56 53.22 53.53 53.39 53.21 53.50 53.34 61.04 57.59 55.12 57.18 50.40 54.40 52.71 52.47 53.08 53.81 50.32 52.95 56.47 52.37 50.56 46.63 49.30 48.41 44.44 46.03 46.08 45.43 44.27 43.92 42.91 42.97 44.09 45.35 44.07
54.77 54.15 54.54 55.03 55.55 55.33 55.28 55.34 54.58 53.91 53.38 52.93 52.82 53.25 53.02 52.21 53.71 58.66 59.49 56.99 59.29 59.05 50.64 50.83 52.41 51.50 51.29 52.69 49.03 49.92 52.31 51.40 47.91 45.51 45.44 44.61 45.24 46.15 45.24 44.54 43.34 44.38 42.34 42.05 41.33 44.38 46.19
53.72 53.41 53.69 54.27 54.61 54.67 54.70 54.68 54.54 54.13 53.27 52.85 52.70 52.76 52.20 51.54 55.99 58.48 56.33 57.51 60.13 59.28 47.65 45.43 48.60 50.97 51.41 50.99 47.41 51.59 51.47 49.94 47.91 44.41 45.25 44.96 46.88 44.62 44.63 43.05 43.66 41.11 43.49 42.75 42.14 40.93 39.08
53.28 53.15 53.14 53.55 54.15 53.60 53.81 53.84 53.98 53.93 53.21 52.69 52.46 52.62 51.84 54.81 57.92 56.68 55.58 58.41 60.52 59.43 38.30 46.92 48.15 54.21 51.82 48.52 48.82 49.83 51.26 50.26 45.26 44.48 45.47 43.31 43.83 43.22 42.92 42.58 43.50 41.68 44.61 43.13 41.60 39.96 39.78
53.21 52.69 53.02 54.03 53.93 53.83 53.88 53.76 53.57 53.10 52.58 52.34 52.34 52.44 51.92 55.79 58.91 55.38 58.01 60.32 59.71 48.84 35.60 44.10 47.49 46.70 47.02 47.98 47.95 49.88 48.81 49.92 47.38 44.41 44.72 44.03 46.47 45.57 44.26 45.25 43.62 44.62 44.08 44.30 41.23 40.41 35.15
53.36 53.10 53.93 54.28 54.08 53.98 53.90 53.68 53.27 52.86 52.38 52.01 52.03 52.05 55.96 57.29 56.06 58.57 60.70 59.64 47.68 41.31 44.87 42.17 43.38 46.03 45.36 44.28 45.30 45.94 44.50 44.05 42.47 39.91 40.42 42.81 43.25 45.52 45.62 43.77 44.27 45.33 42.95 38.25 36.28 36.63 35.61
53.85 53.89 54.17 54.28 54.26 54.00 53.80 53.68 53.20 52.68 52.02 51.75 51.80 52.82 53.94 57.30 59.54 59.35 59.36 53.74 39.27 40.19 42.13 45.00 44.62 45.01 42.89 44.39 44.07 44.17 43.00 42.49 44.71 43.05 41.53 38.81 38.42 42.24 44.88 43.05 41.42 40.58 40.74 36.37 29.25 31.94 35.44
54.83 54.30 54.13 54.34 54.06 53.92 53.62 53.34 53.20 52.76 51.90 51.46 51.83 60.63 58.67 57.47 58.90 59.42 55.57 46.19 41.64 42.70 44.03 43.03 44.06 42.19 42.21 43.27 43.17 43.11 42.53 41.83 43.08 44.81 39.97 39.01 39.46 45.05 43.46 44.82 44.03 40.88 40.64 41.35 35.32 31.43 30.90
54.87 54.40 54.12 54.18 53.70 53.20 53.05 53.05 53.10 52.67 51.72 51.31 61.02 59.19 56.25 57.47 59.18 56.61 52.93 40.73 42.81 44.69 45.12 44.91 40.16 42.25 39.70 41.13 41.24 42.06 41.37 43.28 42.43 44.17 45.31 41.70 37.35 42.74 43.72 44.53 44.16 42.40 43.37 37.28 38.32 30.70 28.48
54.05 53.99 53.94 53.96 53.30 53.01 52.92 52.84 52.78 52.79 51.15 51.33 60.71 54.84 57.12 58.29 57.21 54.10 45.82 43.07 44.02 45.88 46.20 44.18 42.38 41.12 41.28 40.36 41.43 41.02 40.94 43.11 44.38 43.97 45.57 43.77 40.09 41.37 44.65 43.19 42.05 42.30 40.86 39.11 38.84 37.02 31.86
53.24 53.00 53.30 53.52 53.69 53.07 52.96 52.90 52.64 52.46 50.82 54.20 57.95 51.07 57.05 57.34 51.93 49.39 45.95 45.08 43.22 45.34 47.43 46.15 45.93 44.07 42.45 42.29 41.30 41.13 40.58 43.60 45.48 45.49 42.38 44.04 41.59 36.42 40.14 45.62 43.71 43.61 41.25 40.21 35.61 34.33 36.64
52.31 52.58 53.01 53.38 53.65 53.18 52.84 52.56 52.34 52.10 50.72 56.39 54.31 53.54 57.66 56.82 46.65 46.69 46.41 45.13 46.35 45.33 45.17 44.85 43.93 45.05 45.27 42.97 40.11 41.94 43.02 46.07 46.04 45.14 44.25 44.77 39.57 34.43 38.44 40.29 41.69 40.25 41.17 41.26 40.85 37.44 33.46
52.18 52.54 52.80 53.14 53.51 53.38 52.91 52.42 52.18 52.08 50.71 56.47 53.89 46.69 53.29 53.20 50.90 48.31 45.63 44.77 44.42 47.42 46.03 46.01 44.91 46.16 44.90 43.18 44.63 41.97 42.71 45.38 46.72 46.86 45.19 45.50 41.99 38.19 34.73 38.81 42.67 39.06 41.27 42.29 39.47 33.46 35.04
52.26 52.30 52.38 52.50 52.93 52.88 52.76 52.44 52.20 51.95 50.41 57.01 51.74 47.60 46.75 47.18 47.09 47.89 47.37 45.69 44.09 43.48 46.91 46.54 44.81 44.53 43.19 39.56 40.09 40.72 43.33 44.76 46.38 45.46 45.77 45.31 37.58 40.50 40.90 41.67 40.04 39.41 38.94 39.85 38.03 38.63 33.28
52.27 52.17 51.85 51.95 52.25 52.53 52.37 52.18 51.80 51.64 50.60 54.58 51.94 50.62 49.11 47.03 45.34 45.74 43.42 44.23 43.77 44.14 44.42 43.37 43.51 44.30 44.47 41.56 42.42 41.12 43.35 43.95 42.85 45.56 44.21 43.93 37.54 37.45 35.30 39.91 39.72 37.38 39.39 39.51 39.79 39.87 39.93
52.39 52.11 51.79 51.75 51.73 51.88 51.78 51.70 51.31 51.27 52.28 55.01 51.48 49.90 53.05 40.15 43.89 44.82 45.11 45.07 44.27 45.83 45.57 47.10 46.39 45.36 43.14 45.35 47.70 48.38 48.55 47.73 46.86 44.33 42.86 40.95 38.16 35.60 32.14 37.72 35.44 32.03 36.38 39.12 41.10 42.73 41.19
52.16 52.19 51.93 51.81 51.79 51.76 50.12 50.05 50.74 50.04 52.15 56.75 53.96 53.17 39.87 45.00 44.13 45.47 43.89 46.05 45.57 46.29 44.69 46.85 48.30 46.24 48.00 49.86 50.09 49.33 48.10 46.86 46.52 45.73 46.20 39.46 36.26 35.98 32.54 34.38 27.96 41.13 45.06 44.00 41.12 41.32 42.69
51.77 51.91 52.25 52.09 51.83 51.28 51.71 52.07 51.32 50.50 49.35 56.58 53.37 53.29 49.23 37.16 46.84 43.68 44.43 45.43 46.10 46.78 45.68 46.47 48.58 50.06 50.45 48.06 42.96 36.62 38.96 36.75 39.43 42.39 43.09 44.33 38.85 34.81 32.27 32.85 36.62 39.24 42.32 40.61 38.36 38.06 43.67
51.58 51.69 51.99 51.77 51.11 50.80 51.08 51.04 50.65 50.66 50.17 55.53 55.36 54.14 52.25 38.29 43.55 48.19 47.12 47.08 45.57 45.57 44.97 45.15 48.34 50.44 49.27 45.45 38.43 33.90 32.83 36.21 35.78 39.14 38.79 38.63 39.85 35.53 35.35 30.27 28.76 38.77 44.09 42.73 41.13 34.18 43.17
50.94 51.20 51.49 51.27 50.93 50.41 50.58 50.36 50.29 50.49 51.01 56.63 57.77 55.66 54.89 45.68 50.08 48.51 46.91 46.83 48.00 46.60 45.64 45.73 45.82 43.89 47.15 36.62 34.81 34.08 34.67 40.00 34.00 33.67 34.09 34.44 33.90 31.35 32.04 30.73 35.63 43.28 41.58 42.21 32.26 37.11 43.28
50.36 50.52 50.46 50.46 50.46 50.25 50.30 50.18 50.17 50.07 50.68 54.44 56.14 56.52 54.29 44.92 49.80 49.27 49.98 48.81 46.94 47.29 44.11 46.00 44.89 43.18 39.78 35.17 34.62 35.86 33.72 38.81 36.57 39.44 38.04 35.85 33.52 32.25 33.54 31.54 30.32 44.71 39.97 36.46 42.96 47.10 46.91
49.80 49.92 49.91 49.78 49.78 49.73 49.83 49.88 49.95 50.02 50.15 51.69 52.50 55.91 54.78 48.40 48.88 53.59 53.93 54.63 52.66 51.99 48.68 47.28 46.59 45.42 45.53 41.40 37.89 37.89 33.17 33.54 35.17 31.89 40.50 33.47 37.93 38.68 38.39 38.77 46.82 46.89 44.27 46.59 48.54 46.30 46.54

GFSGBSN_sfc_wetblb_003.txt.gz
Wetbulb
56.73 56.82 56.70 56.50 56.43 56.52 56.52 55.99 55.41 55.29 55.01 54.93 54.85 55.01 55.22 55.49 55.67 55.58 55.52 55.41 55.15 55.07 55.25 55.95 56.28 56.61 58.89 55.48 53.92 60.12 61.70 62.94 59.16 57.56 55.02 53.59 52.14 51.79 49.12 50.02 50.93 49.71 49.98 51.40 51.59 51.46 51.57
56.83 56.95 56.83 56.50 56.36 56.25 56.31 55.87 55.45 55.46 55.11 54.95 54.95 54.85 55.05 55.23 55.36 55.60 55.82 55.69 55.21 55.05 55.09 55.95 56.12 56.40 60.36 50.90 59.52 60.77 60.28 59.73 58.98 58.00 56.41 55.95 53.89 54.87 51.89 51.01 50.92 51.28 51.41 51.82 52.38 51.91 51.68
56.79 56.77 56.90 56.77 56.52 56.28 56.13 56.05 55.64 55.66 55.29 54.99 55.07 54.97 54.66 54.85 55.07 55.28 55.38 55.57 55.35 55.23 55.29 56.15 56.58 60.19 56.66 53.60 59.98 60.99 60.24 59.41 59.66 58.37 55.51 55.90 56.38 54.83 53.91 51.70 53.85 52.00 50.00 50.81 51.11 50.69 50.31
56.43 56.56 56.55 56.57 56.09 56.03 56.00 55.76 55.42 55.25 55.13 54.78 54.74 54.94 54.45 54.45 54.48 54.91 55.03 54.97 54.92 55.23 55.53 56.33 56.74 62.60 53.61 59.48 61.54 59.59 60.44 59.06 59.62 59.23 57.67 57.52 57.34 54.94 54.81 54.34 51.89 49.13 49.72 44.86 48.70 49.24 49.99
56.38 56.48 56.26 56.55 56.00 55.78 55.58 55.56 55.29 55.03 54.48 54.70 54.72 54.52 54.31 54.11 54.03 54.71 54.59 54.67 54.81 55.34 56.12 56.88 61.40 58.99 52.47 59.57 57.03 59.22 59.86 56.98 57.90 58.42 58.27 57.05 55.36 52.85 53.60 50.27 48.31 47.66 43.37 44.01 45.64 49.08 48.27
55.95 56.08 56.36 56.28 55.88 55.93 55.87 55.74 54.92 54.60 54.29 54.31 54.45 54.52 54.33 54.05 54.29 54.13 54.25 54.89 55.60 55.89 58.95 61.36 58.55 55.12 55.15 53.07 56.58 57.92 59.96 58.77 56.02 56.53 55.77 53.91 53.25 51.33 50.28 47.75 41.26 42.72 43.77 45.37 45.23 47.72 47.92
55.55 55.48 55.98 56.03 56.08 55.98 56.18 56.11 54.94 54.19 53.92 53.90 54.13 54.15 54.11 53.90 54.33 54.01 56.85 61.96 58.09 55.92 57.53 53.53 53.12 52.28 52.98 56.00 57.89 56.09 58.30 57.03 56.06 54.46 49.72 51.74 50.31 45.79 47.01 47.88 47.03 46.16 45.67 45.40 47.50 48.08 46.65
55.56 55.34 55.45 55.81 55.94 56.15 56.75 56.52 54.98 54.07 53.80 53.66 53.68 53.76 53.64 53.45 54.36 54.20 61.32 58.81 58.24 59.65 51.42 54.75 54.02 53.43 54.51 55.35 51.68 53.74 56.92 53.18 51.65 48.24 50.01 50.32 46.74 48.07 48.75 48.05 47.28 47.28 45.98 45.72 47.57 49.08 48.00
54.70 54.37 54.67 55.22 55.80 55.85 56.15 56.02 54.98 54.11 53.54 53.28 53.26 53.50 53.12 52.65 54.09 61.17 62.12 59.42 62.80 63.02 53.05 51.16 53.50 52.34 52.67 54.22 50.17 51.20 53.77 52.09 48.99 46.97 46.88 45.88 47.60 48.66 47.42 46.89 45.48 46.80 45.13 44.50 44.23 47.51 49.27
53.94 53.52 53.82 54.63 55.44 55.39 55.35 55.37 54.96 54.07 53.41 53.01 52.96 53.15 52.38 52.52 56.47 63.35 59.76 61.38 63.79 63.43 49.92 46.96 49.85 52.36 52.77 52.65 49.44 53.94 53.57 51.35 49.85 46.36 46.71 47.28 48.61 46.38 46.49 45.05 46.00 43.91 47.16 45.95 45.15 44.38 41.51
53.51 53.10 53.32 54.52 54.78 54.48 54.20 54.30 54.26 53.93 53.31 53.12 52.95 53.01 52.49 55.04 61.71 60.09 59.49 62.01 64.37 63.48 41.52 48.36 49.69 55.51 53.28 49.87 50.58 51.31 53.77 52.12 47.33 46.65 47.31 45.74 45.09 44.71 45.08 44.47 46.56 44.71 47.70 46.39 46.36 44.12 43.94
53.55 53.13 54.04 54.76 54.44 54.16 54.16 53.99 53.83 53.59 53.09 52.79 52.91 53.29 53.54 58.65 62.41 59.64 61.95 63.53 63.12 50.58 38.58 46.09 49.51 48.51 48.81 49.72 49.44 51.11 50.87 52.23 50.19 46.60 47.05 45.60 48.20 47.72 46.18 47.90 47.24 47.89 48.00 48.48 47.08 44.44 39.00
53.42 53.52 54.42 54.72 54.42 54.13 54.32 54.05 53.75 53.47 52.89 52.43 52.53 52.67 58.97 62.29 59.35 62.77 64.42 61.99 49.26 43.53 48.13 44.84 46.05 47.89 47.42 46.67 47.46 47.77 47.30 47.51 45.79 43.50 43.52 46.10 45.75 47.53 48.04 46.57 48.68 48.49 45.36 40.17 38.33 39.30 38.07
54.13 54.44 54.40 54.70 54.31 54.20 53.89 53.83 53.43 53.31 52.51 52.00 52.42 53.90 57.36 61.51 63.37 63.92 62.40 53.10 43.11 44.66 45.51 47.81 47.20 46.71 45.34 46.98 46.84 46.55 46.02 46.17 48.07 47.33 45.07 42.07 40.54 44.96 47.94 45.74 43.85 45.08 43.96 38.87 30.81 34.36 37.31
55.03 54.72 54.39 54.60 54.38 54.16 53.80 53.61 53.29 53.29 52.22 51.61 51.75 64.34 61.58 62.07 63.34 63.45 57.19 47.23 44.68 45.95 47.04 45.99 46.25 44.35 44.85 45.83 45.54 46.08 45.48 44.77 46.03 47.49 42.76 41.81 42.16 48.52 46.39 47.44 47.33 44.63 42.82 45.40 38.64 39.52 34.72
55.11 54.72 54.56 54.46 54.26 53.70 53.42 53.35 53.25 53.17 52.13 51.92 62.78 62.36 58.89 62.65 63.62 61.17 54.81 43.85 46.15 47.43 47.76 47.08 43.02 44.56 42.48 43.96 43.83 44.98 44.31 46.03 45.16 47.51 49.14 45.17 39.45 46.39 46.85 48.67 47.86 46.18 47.43 39.96 41.06 32.36 31.16
54.25 54.58 54.33 54.41 53.96 53.48 53.26 53.19 52.91 52.99 51.61 52.04 63.03 57.34 59.83 63.11 61.43 56.96 49.84 46.48 46.44 48.46 48.91 46.82 44.87 43.69 44.01 43.34 44.57 44.07 43.77 45.85 47.18 47.21 48.73 47.43 42.97 43.63 47.29 45.63 44.71 44.98 43.97 42.97 42.68 40.27 33.61
53.02 53.84 53.40 53.87 54.18 53.56 53.19 53.03 52.75 52.45 51.23 54.35 60.83 53.93 60.50 62.52 55.05 54.61 49.71 47.90 44.20 48.08 49.76 48.30 48.36 46.59 45.04 45.27 44.56 44.03 43.29 45.89 48.53 48.59 44.94 47.24 43.62 38.78 42.60 48.55 47.43 46.06 44.84 44.72 38.11 36.47 39.47
52.51 53.28 53.64 53.84 54.08 53.70 53.13 52.79 52.38 52.13 51.58 60.18 56.65 55.76 61.85 61.40 49.34 49.95 49.06 47.81 48.84 47.76 47.83 47.57 46.60 48.07 48.06 45.73 42.62 44.70 45.47 48.31 49.17 47.65 46.64 47.46 42.25 36.67 40.80 44.45 45.83 44.95 46.37 45.86 44.28 42.02 35.90
52.04 52.83 53.39 53.94 54.18 54.00 53.54 53.15 52.71 52.27 51.99 57.45 56.79 51.05 56.06 57.43 55.88 51.12 48.66 47.57 46.45 49.60 48.22 48.94 47.74 48.93 47.21 45.69 47.40 44.27 45.19 47.80 48.87 48.92 46.14 46.80 43.51 39.96 36.03 40.34 44.29 41.30 43.52 45.02 43.68 36.96 38.16
51.88 52.63 52.93 53.43 53.76 53.70 53.65 53.23 52.79 52.27 51.75 57.43 55.73 51.34 50.98 50.29 51.10 51.27 50.60 48.68 46.65 45.78 49.46 49.63 47.38 46.92 45.72 41.72 42.67 43.07 45.81 47.53 48.87 47.05 47.38 47.24 39.83 42.70 43.11 43.94 43.48 42.67 42.17 42.75 41.39 42.26 37.22
52.00 52.11 52.25 52.78 53.00 53.21 53.13 53.05 52.39 51.94 51.44 58.78 54.43 53.78 54.24 51.07 49.41 49.57 45.96 47.11 45.73 46.38 46.88 46.04 45.91 47.02 47.40 44.33 45.11 43.57 46.16 46.42 45.45 48.08 46.62 46.58 38.75 39.91 37.08 41.50 42.08 39.63 42.06 42.34 42.33 42.69 42.73
52.14 52.14 51.98 52.14 52.40 52.78 53.09 52.50 52.04 51.50 52.69 58.27 57.09 55.71 56.79 46.13 47.93 47.92 47.74 46.86 46.30 47.81 48.55 49.04 48.61 47.50 45.60 47.85 50.36 50.34 50.57 50.10 49.06 46.80 45.79 43.29 39.02 36.73 32.22 39.97 36.99 33.24 38.29 41.73 43.15 44.77 43.86
52.11 52.24 52.28 52.16 52.26 52.60 50.77 50.45 51.84 51.20 51.12 60.06 57.90 57.21 44.74 47.78 49.00 47.90 47.51 48.46 47.65 48.61 47.40 49.55 50.25 48.41 50.35 53.47 53.00 51.67 50.24 48.99 49.09 48.60 49.34 41.67 38.20 35.42 32.42 36.25 29.06 41.79 46.61 45.82 43.44 44.33 45.54
51.59 51.95 52.32 52.36 52.28 51.84 51.02 52.59 52.14 52.16 51.47 60.01 59.18 56.91 52.66 38.68 49.89 48.40 48.35 48.61 49.60 50.24 48.59 49.11 50.91 52.72 53.99 51.15 44.71 37.77 40.27 37.10 40.80 46.40 46.65 47.61 40.36 34.15 33.60 34.01 37.28 39.97 44.30 43.30 40.90 39.98 45.08
51.30 51.70 51.84 51.90 51.58 50.96 51.06 51.71 51.19 51.27 51.88 59.17 60.72 59.99 55.94 40.31 47.26 50.50 49.45 50.01 47.91 48.33 48.48 48.72 52.60 53.96 52.18 48.24 39.95 33.42 34.38 36.58 37.12 40.91 44.15 43.06 43.59 35.40 35.78 30.69 28.11 39.97 45.31 46.20 45.78 36.53 45.66
50.98 51.25 51.53 51.66 51.12 50.56 50.66 50.63 50.61 50.87 51.36 57.27 60.25 61.06 56.83 48.19 52.99 51.89 49.52 49.35 51.58 49.82 47.94 48.55 48.67 47.18 50.79 41.22 33.24 33.77 35.71 40.94 34.39 34.53 36.03 36.16 34.86 33.04 32.79 31.49 35.68 44.31 47.20 45.60 34.36 37.88 46.90
50.37 50.70 50.78 50.85 50.78 50.38 50.20 50.27 50.12 50.33 50.85 55.17 59.29 61.19 57.22 50.85 52.59 53.87 54.16 51.55 51.10 49.95 46.79 48.32 47.64 47.64 44.09 36.68 34.87 36.96 35.23 39.58 38.81 40.97 38.86 36.26 34.31 33.06 33.93 32.33 31.42 46.93 45.44 37.98 43.61 48.27 47.98
49.73 49.85 49.96 50.06 49.95 49.91 49.90 49.93 50.07 50.07 50.37 52.32 55.59 59.81 59.17 53.43 53.33 57.09 56.89 56.44 55.23 54.26 51.49 51.20 48.25 47.46 48.04 43.79 39.22 38.86 35.04 35.23 35.04 32.00 43.24 34.68 40.74 39.71 39.69 39.81 48.36 50.59 47.43 50.07 50.26 48.51 47.24

GFSGBSN_sfc_wetblb_006.txt.gz
Wetbulb
57.23 57.17 57.03 56.73 56.72 56.63 56.73 56.15 55.65 55.53 55.27 55.15 55.19 55.25 55.50 55.81 56.14 56.17 56.24 56.07 56.11 55.84 55.88 56.03 56.72 57.14 59.59 55.52 53.66 59.89 62.38 64.29 60.00 58.38 55.69 53.94 52.78 52.59 49.01 50.06 51.08 49.29 49.88 51.19 51.73 51.77 51.13
57.23 57.10 57.04 56.69 56.48 56.55 56.50 56.01 55.69 55.67 55.29 55.27 55.19 55.23 55.07 55.42 55.74 56.13 56.30 56.41 56.15 55.99 55.94 56.07 56.91 56.57 58.81 50.39 59.39 60.48 60.11 59.77 59.06 58.11 55.96 55.69 53.73 54.27 52.14 51.31 50.46 51.35 51.11 50.95 51.62 51.25 51.08
56.99 57.08 57.40 56.82 56.68 56.24 56.22 56.12 55.77 55.67 55.51 55.45 55.45 55.30 55.08 55.29 55.42 55.74 56.17 55.98 55.95 55.91 56.20 56.25 56.99 59.46 56.57 53.25 59.73 60.73 60.10 58.92 59.10 57.84 54.60 55.51 56.46 54.57 54.33 51.73 52.85 51.55 48.92 51.03 51.12 49.85 48.33
56.69 56.69 56.61 56.69 56.29 56.18 56.10 55.97 55.61 55.45 55.33 55.04 55.25 55.20 54.95 54.83 55.14 55.49 55.64 55.59 55.57 55.85 56.40 56.65 56.78 60.02 53.39 59.52 60.99 59.16 60.03 58.51 59.28 59.16 57.14 56.86 57.25 54.63 54.05 53.50 52.28 49.16 49.67 44.62 48.62 49.17 49.44
56.58 56.61 56.46 56.51 56.17 56.02 56.07 55.93 55.40 55.00 54.63 54.81 55.01 55.04 54.77 54.51 54.65 55.26 55.40 55.35 55.37 56.04 56.55 56.98 60.18 59.83 52.41 60.58 56.90 58.90 59.32 56.79 57.96 58.66 58.72 57.46 56.13 52.97 53.28 50.01 47.67 47.90 42.85 44.43 46.54 50.07 48.28
56.21 56.35 56.52 56.55 56.39 56.41 56.64 56.30 55.34 54.71 54.57 54.59 54.83 54.95 54.63 54.55 54.89 55.50 55.62 55.10 56.27 56.77 58.58 60.85 61.02 54.54 55.12 53.10 56.28 57.68 59.46 58.46 56.47 56.36 55.79 54.52 53.37 50.59 49.67 46.76 39.79 42.52 43.28 45.33 45.38 48.36 48.42
55.97 55.55 56.20 56.36 56.47 56.79 57.31 56.64 55.30 54.42 54.18 54.44 54.53 54.71 54.41 54.19 55.01 54.64 57.34 60.83 56.88 56.58 57.08 53.22 52.95 52.49 53.20 55.96 58.00 55.12 56.34 56.49 56.40 54.33 49.30 51.51 49.00 44.78 46.22 47.60 47.26 46.16 45.36 44.76 47.07 48.92 47.49
55.91 55.47 55.73 56.16 56.57 56.99 57.15 56.60 55.32 54.34 54.14 54.18 54.12 54.12 54.02 53.98 55.14 55.77 60.11 59.34 58.51 60.33 50.95 54.24 53.80 53.25 54.21 55.47 51.84 53.66 55.88 52.53 51.53 48.10 49.87 48.71 46.64 47.84 48.39 48.47 46.72 45.65 44.86 44.72 46.74 48.67 47.86
54.83 54.43 54.68 56.06 56.34 56.29 56.58 56.32 55.18 54.40 53.86 53.59 53.80 53.90 53.79 53.34 54.87 60.36 61.94 59.56 63.43 63.58 54.56 51.07 53.30 52.22 52.47 54.52 50.30 50.75 52.92 51.73 49.31 47.37 46.98 45.27 47.56 48.49 47.47 46.88 44.99 44.83 44.72 43.88 43.52 47.04 48.95
54.24 53.53 54.44 55.73 55.83 55.50 55.38 55.44 55.20 54.71 53.88 53.64 53.70 53.67 53.24 53.03 56.27 62.66 59.75 62.71 65.26 65.22 50.28 47.96 50.53 52.57 53.31 52.71 49.91 54.19 53.49 51.19 50.53 46.45 46.41 47.24 48.70 46.61 46.40 45.58 45.54 41.90 47.39 46.00 45.22 44.18 39.89
54.06 53.46 54.47 55.26 55.24 54.69 54.41 54.51 54.65 54.61 53.90 53.59 53.35 53.87 53.71 53.41 63.56 59.19 60.44 63.34 65.08 64.31 41.57 48.96 50.05 55.58 53.58 50.26 50.55 51.33 54.55 52.27 47.68 47.09 47.10 46.17 46.12 44.34 44.85 45.14 46.74 44.11 47.63 46.39 46.76 45.12 43.92
53.98 54.15 54.90 55.02 54.77 54.39 54.29 54.25 54.15 54.13 53.58 53.13 53.23 53.59 55.25 60.36 64.62 61.29 63.01 64.89 63.68 50.65 39.73 46.64 50.10 49.06 49.51 50.33 49.89 51.50 51.60 53.09 51.07 47.22 47.37 46.09 48.73 47.45 46.24 47.64 48.64 48.98 47.56 47.53 48.27 44.80 38.91
53.94 54.52 55.02 54.91 54.65 54.47 54.45 54.19 53.84 53.97 53.40 52.58 52.88 53.65 59.67 63.27 60.03 63.50 65.10 62.32 49.69 43.19 48.88 45.79 46.94 48.48 47.76 47.27 48.06 48.36 47.76 47.73 45.61 43.05 44.02 47.12 46.41 48.14 48.44 45.95 49.22 47.78 44.15 38.72 37.45 39.01 37.16
55.02 55.18 54.75 55.00 54.89 54.57 54.43 54.08 53.68 53.48 53.26 52.31 52.89 52.50 59.47 62.87 64.09 65.35 63.03 53.66 42.96 45.05 46.18 49.08 47.76 47.35 45.81 47.10 47.70 47.41 47.42 46.01 48.20 46.70 44.30 41.99 40.73 45.54 48.52 45.97 43.76 44.74 43.69 38.94 30.39 32.43 34.91
55.26 55.14 54.87 55.02 54.95 54.57 54.09 53.92 53.56 53.35 52.91 52.09 51.94 64.53 62.76 63.73 65.05 64.72 57.52 47.07 44.73 46.80 47.92 47.01 47.08 44.78 46.13 46.73 45.55 46.75 46.16 45.10 46.21 47.02 41.61 41.49 41.97 48.86 48.09 47.93 47.05 44.34 41.97 45.90 38.67 38.35 35.13
54.73 55.07 54.87 55.06 54.53 54.11 53.70 53.42 53.39 53.05 52.95 52.23 62.18 61.80 59.11 64.18 64.94 62.11 55.31 44.23 47.01 48.50 48.87 47.96 43.81 45.32 43.36 44.87 44.67 45.82 45.42 46.89 46.02 48.00 49.24 45.83 38.75 47.33 47.92 49.73 49.33 45.95 48.06 39.16 40.76 31.61 29.60
54.24 54.59 54.85 54.75 54.53 53.89 53.48 53.38 53.15 52.83 52.80 52.26 63.02 57.73 60.78 63.51 63.21 57.24 49.21 46.85 46.97 49.06 49.92 47.60 45.94 44.65 44.66 43.98 45.56 44.65 44.69 46.79 48.06 47.72 49.19 47.81 43.80 43.26 46.88 45.95 43.91 44.22 42.58 44.00 43.15 40.10 32.83
53.20 53.77 54.06 54.33 54.70 54.07 53.68 53.44 53.04 52.61 52.05 54.13 62.83 53.84 62.02 63.50 54.78 53.86 48.92 48.57 44.47 48.90 50.68 49.30 49.33 47.89 46.19 46.46 45.06 44.83 43.92 46.57 49.47 48.83 45.12 47.56 43.42 38.33 41.63 47.90 48.78 46.15 44.28 44.28 36.23 35.27 37.80
52.58 52.77 53.44 54.31 54.56 54.25 53.75 53.52 52.96 52.58 52.14 57.19 56.24 55.72 63.05 61.93 49.53 50.06 49.55 48.31 49.87 48.57 48.72 48.54 47.54 48.75 49.01 46.41 43.05 45.86 46.39 49.39 49.74 47.95 45.38 46.45 42.47 35.55 39.05 44.62 46.57 44.22 45.00 45.22 44.36 39.75 35.63
52.13 51.99 52.79 54.11 54.68 54.61 54.33 53.73 53.22 52.74 52.36 57.45 56.32 48.38 56.25 57.47 55.80 51.15 48.62 47.95 46.63 50.54 49.01 49.70 48.54 49.46 47.72 46.13 47.94 44.70 45.59 48.77 49.67 48.94 46.67 47.00 42.55 39.23 34.93 38.79 43.22 40.05 42.37 43.71 42.32 35.38 36.27
52.06 51.74 52.59 53.58 54.02 54.17 54.19 53.65 53.06 52.68 52.15 58.37 55.49 51.96 52.67 51.11 51.14 51.78 50.81 49.08 47.34 46.61 49.90 50.06 47.93 47.50 46.12 41.14 43.09 43.41 46.38 47.31 49.48 47.59 48.67 46.51 39.30 41.54 42.19 42.85 42.22 40.65 40.47 41.42 40.22 40.49 35.62
51.83 51.86 52.38 53.10 53.39 53.63 53.87 53.45 52.71 52.26 51.67 59.57 53.84 53.05 53.92 51.09 50.90 49.78 46.00 47.35 46.66 47.50 47.34 46.84 45.78 47.90 47.65 45.06 44.68 42.52 45.38 46.01 44.89 48.28 47.32 47.52 38.10 38.50 36.27 41.02 41.24 38.02 40.71 41.62 41.01 41.22 41.32
52.29 52.30 52.18 52.41 52.77 52.99 54.51 53.00 52.40 51.83 53.01 58.09 57.47 56.38 56.87 47.53 49.43 48.59 48.36 47.43 47.09 48.44 49.55 49.35 48.84 47.90 43.40 47.40 50.22 50.17 50.13 49.22 48.28 46.21 44.80 43.90 39.09 34.19 32.56 37.87 36.27 32.38 37.06 40.35 41.96 43.53 42.70
52.12 52.33 52.44 52.59 52.69 52.83 51.10 51.14 52.45 51.82 52.03 60.30 58.49 57.22 43.25 47.59 50.23 47.88 48.35 48.65 48.04 48.68 47.39 49.81 50.29 46.74 50.43 54.39 53.00 51.08 49.58 48.02 47.51 46.84 48.09 40.82 36.19 34.18 32.23 32.95 27.49 39.98 45.79 44.04 42.36 43.73 44.80
51.56 51.94 52.23 52.47 52.71 52.53 50.96 52.38 52.99 52.15 52.13 59.50 59.58 57.07 51.55 36.77 49.84 48.79 49.09 48.68 49.51 50.04 48.71 48.95 50.35 52.54 54.52 50.85 42.91 35.69 40.39 37.68 39.82 45.93 46.07 47.05 38.10 34.96 31.70 32.66 36.14 38.90 42.14 41.95 39.82 39.53 44.97
51.26 51.59 51.98 51.86 51.79 51.46 51.28 52.24 52.38 51.90 52.36 57.11 60.44 60.60 55.52 38.79 46.36 50.61 49.05 49.74 47.86 48.32 48.98 49.95 53.37 54.60 52.14 47.99 38.77 33.30 33.81 36.29 36.94 39.75 45.68 43.06 40.44 39.31 36.23 30.43 27.24 38.50 43.52 46.90 45.97 34.64 45.16
50.89 51.16 51.40 51.49 51.19 50.94 50.60 50.70 51.07 51.46 51.68 55.80 60.87 62.04 56.66 48.30 52.58 52.67 49.32 49.62 51.26 50.11 47.94 49.34 49.24 48.43 51.10 39.68 34.42 33.32 33.81 40.34 34.37 32.91 34.00 37.11 35.14 33.15 33.84 31.52 34.72 43.13 45.93 47.31 33.67 36.04 44.57
50.36 50.64 50.57 50.87 50.80 50.80 50.42 50.22 50.33 50.47 50.98 54.10 59.12 62.28 57.55 50.67 52.17 54.22 54.14 51.24 51.07 50.81 48.02 49.17 47.60 49.45 43.95 36.05 34.60 37.26 34.60 39.22 38.30 39.83 37.72 35.54 34.22 33.09 32.55 31.46 29.91 46.97 46.24 37.11 42.64 46.72 45.94
49.80 49.91 50.05 50.16 50.27 50.19 50.10 49.92 50.13 50.43 50.48 51.32 54.97 61.22 60.94 54.19 52.87 56.91 56.95 57.85 55.62 54.32 51.49 51.00 47.45 47.54 47.34 42.63 38.19 38.23 34.42 36.05 34.03 32.22 41.75 34.12 38.86 36.60 37.66 37.53 45.20 47.60 46.05 47.71 47.09 46.02 45.60

GFSGBSN_sfc_wetblb_009.txt.gz
Wetbulb
57.34 57.36 57.35 56.87 56.72 56.85 56.78 56.34 56.16 55.88 55.70 55.52 55.58 55.46 55.57 56.03 56.21 56.51 56.26 55.88 55.98 56.48 56.37 56.38 56.90 57.30 56.43 52.68 51.27 56.78 61.66 61.38 59.62 56.65 53.75 52.52 50.28 48.87 45.36 46.23 47.74 45.12 46.24 47.91 48.62 48.55 46.96
57.40 57.51 57.50 57.10 56.58 56.32 56.50 56.19 55.69 55.76 55.72 55.43 55.56 55.50 55.34 55.42 56.01 56.23 56.22 56.04 55.81 55.96 56.15 56.32 57.29 56.25 55.13 47.64 56.77 57.97 57.92 57.47 56.17 54.45 52.00 51.93 50.80 51.55 49.31 47.65 45.68 48.40 48.17 47.39 47.88 47.52 47.62
57.05 57.46 57.17 56.54 56.50 56.54 56.52 56.10 55.66 55.68 55.58 55.54 55.51 55.25 55.25 55.40 55.75 55.83 55.93 55.90 55.66 55.80 56.03 56.37 57.10 57.47 55.10 51.47 55.76 55.72 58.09 55.68 55.71 55.26 52.07 52.68 53.08 50.32 50.69 48.69 50.11 48.99 44.35 46.81 47.17 46.42 43.64
57.26 57.19 56.93 56.60 56.33 56.30 56.28 56.10 55.54 55.45 55.17 55.27 55.35 55.23 54.74 54.76 54.97 55.18 55.51 55.36 55.30 55.76 56.27 56.62 57.25 56.31 50.24 57.99 55.49 56.90 56.34 55.96 56.94 56.56 54.81 53.73 53.62 51.52 50.26 50.62 49.35 45.81 44.00 39.05 46.04 46.32 46.16
56.97 56.71 56.70 56.64 56.35 56.36 56.32 56.04 55.25 55.05 54.97 55.00 55.15 54.92 54.66 54.40 54.42 54.97 54.73 54.78 55.18 56.10 56.45 56.64 55.11 54.93 48.87 58.54 54.95 56.00 55.82 55.18 56.30 56.53 55.44 56.61 53.04 49.00 49.19 44.27 41.17 42.08 35.99 40.17 43.41 45.75 43.91
56.59 56.25 56.44 56.48 56.67 56.72 56.82 56.22 55.02 54.52 54.48 54.46 54.64 54.86 54.46 54.25 54.42 55.37 55.29 55.03 56.42 55.82 57.24 58.51 59.07 51.16 53.61 52.12 54.34 55.21 54.16 54.94 54.14 53.88 53.03 52.19 48.31 44.48 42.41 39.18 32.41 36.72 37.79 41.42 38.94 43.17 43.91
55.90 55.90 55.93 56.53 56.79 57.07 57.11 56.39 55.25 54.30 54.21 54.44 54.50 54.44 54.29 54.08 54.65 54.09 55.85 57.02 51.63 51.30 53.42 48.18 49.13 50.62 51.53 53.80 55.90 52.12 53.33 52.39 52.84 51.17 45.20 46.94 42.28 37.63 39.41 42.52 43.73 41.86 40.17 38.52 41.09 45.57 42.93
55.07 54.99 55.70 56.63 56.81 56.91 57.05 56.49 55.17 54.18 54.03 54.17 54.11 54.17 54.01 53.89 54.42 54.81 54.84 54.80 54.44 55.89 47.85 53.21 52.24 51.77 54.01 53.26 50.01 50.73 52.94 48.55 48.22 43.81 46.13 43.33 40.12 44.31 45.98 45.49 43.95 41.98 40.41 39.25 42.41 45.61 44.18
54.14 53.89 55.48 56.27 56.40 56.34 56.45 56.42 55.25 54.50 53.91 53.65 53.77 54.13 53.92 53.27 53.64 56.97 55.25 54.62 60.33 60.18 50.52 50.38 52.54 51.51 51.93 52.72 49.08 48.31 49.69 48.43 46.32 44.47 43.02 40.64 44.10 47.28 45.66 44.19 42.29 40.32 40.24 39.62 39.62 43.49 44.67
53.58 53.29 55.09 55.66 55.69 55.47 55.29 55.33 55.19 54.88 53.91 53.58 53.50 53.85 53.54 52.88 53.81 57.44 53.83 58.10 61.09 60.00 46.09 45.87 49.53 51.05 52.79 51.99 49.14 51.66 50.96 48.88 48.15 43.85 43.22 43.70 46.68 44.70 43.42 43.49 42.62 37.97 44.37 43.52 42.18 39.34 34.42
53.32 53.76 54.80 55.00 54.86 54.44 54.18 54.30 54.58 54.62 53.96 53.38 53.30 53.79 53.84 53.27 57.25 54.31 56.29 58.99 59.49 59.15 31.67 49.15 48.69 52.39 51.19 48.50 48.38 49.54 50.92 49.76 43.90 43.74 43.40 42.78 41.81 40.97 42.03 42.29 43.91 41.28 45.12 43.28 42.77 39.44 36.60
53.48 54.27 54.78 54.78 54.70 54.30 54.14 53.96 53.89 53.87 53.68 53.16 53.04 53.66 53.93 56.97 57.01 55.99 59.41 60.36 58.35 44.36 31.56 45.78 49.64 48.68 48.59 49.10 48.88 49.56 49.77 50.63 49.10 45.72 44.38 42.86 45.46 44.01 42.76 45.35 45.53 46.46 44.25 43.17 43.19 39.07 30.58
53.83 54.62 54.66 54.64 54.54 54.40 54.36 53.91 53.59 53.45 53.31 52.55 52.69 53.09 56.04 60.19 54.33 58.74 59.95 57.15 43.24 33.62 48.68 44.17 45.78 48.02 46.95 45.68 47.24 46.87 46.37 43.83 40.57 37.29 38.55 44.07 42.91 44.11 46.89 42.58 45.67 43.34 38.85 29.19 28.52 28.51 28.53
54.64 54.56 54.42 54.64 54.64 54.52 54.12 53.83 53.35 53.15 53.01 52.33 52.31 51.99 58.01 60.29 60.07 59.92 58.57 48.16 36.01 43.45 44.23 48.26 47.11 46.61 44.26 44.86 45.58 45.82 44.52 41.25 44.35 42.68 39.00 37.43 34.60 43.14 46.73 43.36 40.40 40.17 39.22 28.77 24.65 25.82 28.69
54.98 54.62 54.35 54.54 54.66 54.30 53.91 53.63 53.29 53.04 52.58 52.31 52.14 56.65 56.76 58.51 60.83 59.17 52.80 39.31 36.29 43.78 46.69 45.29 46.34 42.80 43.27 45.68 43.66 44.49 41.99 41.63 43.12 43.59 38.01 37.05 38.83 46.34 46.58 46.20 44.12 40.85 35.95 41.91 33.12 31.08 27.39
54.21 54.52 54.35 54.29 54.22 53.72 53.39 53.51 53.13 53.02 52.70 52.36 54.54 57.42 54.01 58.87 59.47 57.61 48.19 40.35 43.49 47.62 47.34 47.29 42.25 43.75 40.40 42.55 42.46 42.74 41.98 44.81 44.40 46.03 45.77 42.58 35.66 44.77 46.67 46.76 45.71 42.88 44.42 33.77 31.52 24.94 25.72
53.36 53.68 54.11 54.13 53.94 53.36 53.45 53.39 53.03 52.80 52.80 51.99 57.07 52.86 55.91 58.49 58.52 52.46 39.81 40.47 45.16 48.22 48.74 45.67 44.09 43.53 43.51 42.42 43.40 42.28 42.26 44.58 46.07 45.71 45.91 44.21 38.94 38.68 43.60 42.72 40.10 39.83 37.62 39.14 40.96 34.22 29.43
52.49 52.81 53.06 53.66 54.03 53.62 53.55 53.41 53.03 52.43 52.40 55.07 55.26 47.34 56.20 58.30 49.48 47.97 40.99 46.28 45.07 48.09 49.87 48.46 47.56 46.04 43.95 44.51 42.64 42.70 42.75 44.61 47.44 46.03 42.69 43.75 39.00 30.00 38.49 44.82 46.30 42.75 41.67 41.40 32.41 32.43 30.98
52.23 52.20 52.60 53.18 53.96 53.73 53.48 53.23 52.85 52.50 52.26 49.69 51.76 51.00 57.68 56.64 39.82 38.22 45.43 47.35 48.26 47.94 47.39 47.58 46.31 47.09 46.88 43.69 38.32 43.60 44.51 47.60 47.03 45.82 42.18 42.85 34.60 28.17 33.39 39.51 42.73 40.39 42.00 41.49 39.47 32.05 31.17
52.11 51.97 52.50 53.18 54.03 53.99 53.72 53.19 52.91 52.57 52.27 52.12 51.22 38.36 50.13 51.64 50.25 45.68 44.51 45.23 45.08 49.14 48.05 48.74 47.51 47.86 45.50 43.21 45.14 41.14 43.24 47.10 47.76 46.94 46.16 44.71 38.97 33.62 29.07 34.19 39.63 36.87 39.22 40.22 37.85 25.94 30.91
51.98 51.65 51.76 52.79 53.47 53.31 53.46 53.02 52.68 52.15 52.04 54.16 50.11 44.58 46.78 39.34 44.16 46.17 46.67 47.06 45.29 45.01 48.56 48.49 46.19 46.12 43.95 36.56 38.94 40.79 45.04 45.06 46.83 45.69 45.76 43.41 32.90 37.91 39.03 40.44 40.76 39.47 38.80 38.59 36.79 36.39 31.90
51.83 51.78 51.97 52.26 52.63 52.91 53.20 52.61 51.97 51.62 51.53 54.32 47.51 46.86 48.40 44.12 47.02 45.67 42.90 44.49 45.04 45.89 45.44 45.74 43.79 46.21 45.13 39.97 42.69 38.94 42.76 41.98 41.26 44.46 42.10 43.74 33.08 34.38 34.74 39.42 40.03 36.17 37.45 37.86 37.64 37.60 37.55
51.90 51.93 51.93 52.04 52.29 52.52 52.95 50.38 51.75 51.39 52.63 53.99 51.66 50.81 49.70 43.09 42.16 39.10 40.44 45.23 45.82 47.04 47.09 47.85 46.09 44.08 37.80 44.79 46.02 46.01 45.92 45.56 44.84 42.42 38.11 37.98 33.15 29.14 32.90 35.58 34.19 26.87 33.44 36.56 38.08 39.18 37.95
51.70 52.20 52.23 52.52 52.76 52.52 50.67 51.14 51.83 51.18 51.55 54.09 53.39 51.74 36.83 35.10 37.31 42.35 47.11 46.96 46.06 46.66 44.06 48.40 46.94 41.39 48.23 50.85 48.30 44.61 43.03 43.68 43.21 43.39 43.56 33.68 30.10 31.01 32.47 30.07 25.74 35.24 42.08 41.21 38.57 39.65 40.28
51.34 51.62 52.02 52.52 52.76 52.44 50.27 51.35 51.82 51.29 51.60 53.43 55.07 52.45 40.62 34.21 42.46 44.75 45.86 45.87 46.54 46.23 44.94 47.09 49.07 50.56 49.84 45.62 35.50 33.02 31.23 31.45 35.19 41.80 41.12 41.59 32.55 31.21 29.60 28.62 32.83 35.94 39.21 37.05 35.50 35.81 42.07
51.25 51.34 51.58 51.64 51.70 51.66 51.66 51.56 52.14 51.50 51.35 53.66 55.91 55.17 45.93 36.12 38.16 49.08 44.71 45.44 38.65 38.07 40.01 45.13 50.39 50.22 48.27 34.94 35.03 28.23 22.90 29.97 31.33 36.61 42.26 39.20 36.35 32.05 28.81 23.78 21.88 31.70 39.88 44.58 43.45 32.16 42.23
51.13 51.31 51.37 51.42 51.12 50.87 51.05 51.01 51.19 51.37 51.47 52.73 54.07 57.12 52.23 40.52 45.48 48.35 42.94 41.86 47.06 42.65 36.90 42.17 44.39 40.45 45.97 34.51 32.74 32.23 27.38 36.55 27.87 26.02 26.51 29.15 30.07 27.36 23.87 26.71 29.38 38.29 42.17 44.95 28.99 34.20 42.84
50.56 50.56 50.70 50.64 50.63 50.41 50.48 50.43 50.44 50.67 51.02 52.73 53.37 56.88 52.46 43.98 47.01 50.34 51.28 47.25 47.46 44.97 35.88 42.65 40.80 38.62 36.15 33.09 33.12 32.88 32.40 31.06 29.65 34.79 29.73 28.31 26.02 29.42 25.98 29.70 23.90 42.62 41.15 32.15 38.73 42.24 43.56
49.88 49.99 50.09 50.25 50.23 50.22 50.20 49.82 49.94 50.30 50.59 50.81 50.50 56.76 56.46 49.06 48.06 53.23 53.89 54.08 52.91 51.76 47.50 45.12 43.02 43.74 42.25 33.93 33.34 33.62 33.09 33.25 32.38 31.34 37.92 31.44 34.11 29.31 31.92 30.21 39.63 42.79 41.35 43.44 44.64 43.00 43.49

GFSGBSN_sfc_wetblb_015.txt.gz
Wetbulb
56.86 56.83 56.53 56.53 56.70 56.87 57.06 56.58 55.71 55.69 55.22 55.16 55.08 55.37 55.37 55.78 56.11 56.54 56.09 55.57 55.77 55.97 56.20 56.37 56.99 57.81 53.24 47.90 48.40 54.85 60.97 58.85 53.66 52.38 50.06 49.18 47.79 45.58 43.27 43.32 43.93 42.04 42.70 44.61 45.00 44.79 43.06
56.88 56.80 56.89 56.82 56.92 57.03 56.86 56.05 55.35 55.42 55.08 54.92 55.00 55.00 55.14 55.41 55.67 55.89 55.79 55.32 55.18 55.49 55.85 56.33 57.26 57.33 51.94 44.25 54.06 54.52 54.00 55.03 53.22 52.01 50.10 49.62 47.53 47.64 46.09 44.94 42.93 44.95 44.62 44.94 44.59 44.30 44.13
56.53 56.71 56.92 56.85 56.94 56.91 56.78 55.99 55.14 55.22 54.92 54.82 55.00 54.78 54.74 55.15 55.31 55.47 55.47 55.37 55.04 55.22 55.58 56.42 57.43 56.89 51.15 48.40 52.63 53.05 54.21 52.69 52.30 52.71 49.60 49.89 49.58 48.00 46.78 45.19 47.66 45.42 42.19 43.97 43.75 43.31 42.42
56.55 56.28 56.62 56.82 56.70 56.51 56.53 55.81 54.96 54.98 54.96 54.78 55.00 54.59 54.27 54.31 54.47 54.47 54.66 54.63 54.76 55.21 55.71 56.47 56.96 55.47 46.23 55.02 53.06 53.55 53.37 53.06 53.85 53.88 52.72 51.73 51.28 48.22 46.33 47.26 45.64 41.81 39.89 36.46 42.91 42.84 42.70
56.35 56.01 56.57 57.06 56.65 56.39 56.31 55.69 54.86 54.67 54.74 54.55 54.49 54.27 53.94 53.75 53.77 54.08 54.06 54.14 54.55 55.60 56.45 56.24 54.89 51.67 47.13 56.48 52.05 52.54 51.37 50.26 51.45 53.06 52.69 54.19 50.69 45.39 44.23 38.48 36.22 37.20 32.23 34.40 39.37 42.78 42.41
55.66 55.75 56.90 56.99 56.76 56.71 56.75 55.71 54.68 54.37 54.45 54.43 54.47 54.15 53.84 53.69 53.36 53.01 52.94 53.98 55.29 55.19 55.54 56.32 55.63 46.90 50.48 48.55 51.22 51.12 50.57 51.27 49.77 50.36 49.90 48.79 43.78 40.25 38.56 36.71 29.96 32.51 32.90 36.15 34.91 40.73 41.47
54.83 55.23 56.55 56.82 56.72 56.90 57.14 56.17 55.06 54.17 54.21 54.41 54.33 54.18 53.78 53.40 53.28 53.12 53.69 53.20 51.41 48.06 51.49 44.93 45.76 46.79 47.73 50.96 52.01 50.10 50.02 49.92 49.15 46.79 41.75 43.71 39.42 35.29 35.78 38.18 39.50 37.56 36.00 34.63 37.17 40.81 40.94
53.88 54.74 56.12 56.66 56.67 56.62 56.69 56.19 54.94 54.17 53.96 54.08 53.96 54.06 53.73 53.30 53.14 53.98 54.60 52.23 51.70 51.78 44.18 50.56 48.65 48.39 50.18 49.96 46.39 48.73 49.90 45.97 45.27 40.16 41.61 41.25 36.68 40.48 42.36 42.09 40.08 38.87 36.33 35.05 39.20 41.69 39.99
53.15 54.16 55.29 55.99 55.85 55.93 56.00 55.89 54.98 54.27 53.81 53.50 53.62 53.96 53.82 53.07 52.94 54.56 53.55 54.39 58.61 55.96 44.37 46.88 48.83 47.82 48.48 49.39 45.53 46.32 47.32 45.25 43.16 40.65 40.23 38.10 40.57 43.37 42.21 39.95 38.67 36.42 36.00 35.53 36.85 39.48 39.38
52.55 53.76 54.67 55.30 55.60 55.38 54.94 54.98 54.78 54.41 53.83 53.38 53.38 53.68 53.01 54.02 54.70 53.16 51.72 54.47 56.69 54.60 38.34 42.91 46.44 48.20 49.20 48.23 45.45 48.58 48.40 46.06 43.69 39.40 39.53 39.95 42.11 40.88 40.33 39.07 38.55 34.58 39.72 39.21 38.37 36.20 32.09
52.44 53.78 54.25 54.76 54.88 54.21 53.83 53.97 54.11 54.15 53.85 53.54 53.05 53.21 53.06 56.06 53.55 51.57 54.30 56.57 57.34 52.52 26.44 45.02 45.22 49.81 47.89 45.81 45.03 47.22 49.22 46.45 40.67 41.30 40.56 39.34 38.47 38.99 38.72 39.19 40.36 38.62 41.68 39.12 38.71 35.34 33.30
52.49 54.07 54.37 54.41 54.33 53.87 53.71 53.67 53.56 53.61 53.51 53.22 52.81 53.08 53.49 56.09 52.35 52.17 56.29 55.05 54.64 39.37 28.52 41.86 45.95 44.80 44.88 46.11 45.67 46.95 47.24 48.46 46.67 43.47 42.73 40.65 42.19 40.93 40.00 41.97 42.55 43.44 40.20 38.69 37.43 35.01 28.28
52.75 53.75 54.08 54.25 54.19 53.73 53.63 53.53 53.30 53.40 53.16 52.86 52.38 53.00 56.08 57.34 49.78 55.56 55.94 51.62 38.95 31.08 44.98 40.63 42.01 44.14 43.59 41.91 43.55 43.97 42.41 41.07 37.69 33.86 35.03 40.72 40.92 42.77 43.57 40.20 42.59 40.27 35.50 27.43 26.80 26.53 26.94
53.47 53.67 53.78 54.17 54.01 53.65 53.49 53.49 53.16 52.94 52.88 52.68 52.00 53.94 56.12 57.39 56.29 55.78 51.78 44.79 33.24 39.41 40.31 44.54 43.33 43.13 40.69 41.69 41.67 42.42 40.57 37.71 41.25 39.36 36.11 34.04 32.04 40.62 44.10 40.10 37.59 37.39 35.91 26.90 22.39 24.14 27.22
54.00 53.64 53.59 53.74 53.73 53.53 53.27 53.11 53.05 52.88 52.52 52.14 53.14 55.28 51.97 53.76 56.78 55.49 46.81 34.34 33.38 39.65 42.74 41.64 42.75 39.68 39.59 42.64 41.16 40.69 38.89 38.43 40.09 40.79 35.06 34.00 35.00 42.87 43.69 43.73 41.26 38.32 33.49 37.98 30.32 29.19 26.10
53.47 53.62 53.40 53.24 52.92 52.81 52.65 52.75 52.81 52.88 52.44 52.37 53.88 50.59 49.78 54.90 55.68 49.18 40.76 36.80 39.74 43.85 44.24 44.39 38.39 40.34 36.49 39.84 39.47 38.93 38.30 41.64 41.08 43.25 41.98 39.07 33.70 40.78 42.90 43.55 42.78 39.92 40.90 32.14 30.00 20.22 24.22
52.63 53.17 53.14 53.00 52.68 52.26 52.63 52.53 52.45 52.38 52.12 51.83 55.16 44.86 50.17 55.66 53.22 44.65 35.22 35.41 41.42 44.79 45.66 43.15 41.02 40.32 40.26 39.13 39.75 38.20 38.81 41.51 42.84 42.71 43.27 39.44 36.21 36.34 39.26 38.36 36.29 37.26 35.25 35.40 35.54 30.79 25.85
51.82 52.07 52.28 52.66 52.77 52.40 52.44 52.53 52.20 52.11 51.61 53.67 49.35 40.68 49.81 53.44 44.91 39.62 37.10 42.08 43.76 44.94 47.14 45.33 44.57 42.77 40.79 40.58 39.41 39.26 39.14 41.45 43.99 43.24 39.08 40.36 34.86 29.20 34.84 40.55 41.73 39.54 37.05 35.79 29.86 29.51 28.47
51.50 51.79 51.70 52.77 53.13 52.24 52.21 52.20 51.90 51.52 51.69 50.51 47.52 46.27 52.40 50.78 36.04 32.74 41.84 44.34 45.14 44.47 44.15 43.97 42.58 43.89 43.81 40.00 36.07 40.09 41.01 44.32 43.91 42.70 39.25 39.56 32.42 26.31 30.44 35.42 38.31 36.73 37.63 37.54 34.77 29.94 30.10
51.21 51.35 51.42 52.09 53.10 52.56 52.36 50.99 50.21 51.45 51.47 51.73 44.76 38.36 45.86 45.92 44.29 41.15 40.53 41.11 41.93 45.52 44.79 45.25 43.73 44.60 42.13 39.54 41.50 37.85 40.12 44.35 45.21 43.68 44.58 42.85 35.50 30.86 26.83 30.53 35.19 33.52 35.99 36.92 34.51 25.75 28.76
51.28 51.22 51.00 51.53 52.72 52.26 50.07 49.85 50.41 51.40 51.21 50.76 44.34 39.86 43.69 36.23 40.98 42.18 42.58 43.28 41.63 41.15 44.59 44.96 43.06 42.35 40.48 34.50 36.04 37.47 41.07 41.69 43.23 44.26 42.13 39.36 31.84 33.74 35.14 36.37 36.55 36.60 36.22 37.18 34.57 33.72 30.98
51.16 50.74 50.36 51.13 52.17 51.37 48.62 50.14 51.07 51.22 51.58 48.01 45.05 43.39 42.66 40.96 43.95 41.00 39.34 40.38 42.56 42.18 43.01 41.60 41.22 42.13 41.73 37.81 38.41 36.17 39.87 38.46 38.69 40.78 38.74 39.70 30.81 32.41 30.93 35.99 36.57 34.54 36.68 36.04 35.94 35.68 34.50
51.32 50.27 49.70 50.88 51.91 49.14 48.89 51.04 50.67 51.18 52.00 48.07 47.54 46.45 43.76 37.50 37.19 35.98 36.39 41.18 42.46 44.16 43.89 44.92 43.73 40.50 34.97 41.49 44.19 43.63 43.88 43.03 41.76 39.36 35.91 35.50 30.87 30.57 25.65 32.64 31.19 25.76 31.49 34.16 34.89 35.76 34.68
51.17 51.28 51.17 51.29 51.77 48.46 48.35 50.60 50.30 50.54 51.98 50.44 48.40 43.34 36.31 32.20 31.95 37.41 43.05 43.05 42.45 42.54 41.91 43.85 43.45 39.72 43.42 46.49 44.42 41.83 39.24 38.18 38.08 38.76 41.02 31.86 29.77 28.79 28.23 30.77 23.15 34.01 37.68 37.79 35.20 36.09 36.52
50.70 51.07 51.42 51.57 51.77 48.66 48.33 50.82 50.12 50.40 51.51 52.41 49.70 44.39 37.59 31.60 38.47 39.51 42.24 42.39 42.38 42.73 42.20 42.73 45.52 45.22 45.04 40.47 33.00 29.74 29.99 29.17 31.08 39.19 37.52 36.66 31.69 29.26 28.96 27.64 29.76 34.14 36.32 34.00 32.75 33.34 39.06
50.65 50.78 51.36 51.33 51.21 49.47 50.68 51.07 50.56 50.33 50.98 52.45 50.47 46.12 41.55 35.32 36.14 44.48 42.05 41.88 35.97 33.85 36.75 41.79 46.60 46.24 42.34 30.93 29.21 23.23 22.04 27.43 29.70 33.14 37.80 35.91 31.51 26.84 28.32 26.11 23.08 30.54 35.10 40.28 39.28 30.17 39.07
50.61 50.70 50.85 51.09 50.79 50.69 50.89 50.89 50.67 50.81 50.97 51.61 50.89 50.28 46.94 38.37 41.46 45.39 40.18 38.60 42.38 38.10 33.54 36.44 41.10 38.53 40.59 33.75 29.62 22.07 25.01 32.80 27.30 23.59 24.45 27.54 29.83 25.92 26.01 27.32 26.95 33.86 37.59 39.20 25.74 29.02 39.68
50.22 50.31 50.29 50.32 50.16 50.09 50.42 50.67 50.70 50.81 50.18 51.64 50.02 52.13 48.57 40.77 44.09 47.48 48.14 44.94 44.28 40.70 35.15 40.00 39.11 36.16 35.27 30.35 26.43 26.12 20.45 29.10 28.27 31.55 28.79 27.50 25.41 23.93 26.15 24.57 22.35 37.68 38.50 32.56 36.57 37.31 39.06
49.80 49.88 50.04 49.88 49.77 49.71 49.89 50.11 50.43 50.58 50.68 51.18 49.21 52.48 51.67 47.55 45.83 50.57 51.13 51.32 49.98 47.25 43.58 40.75 40.53 38.32 38.17 34.86 33.23 29.77 30.78 27.50 27.38 29.82 34.40 31.28 33.03 28.15 29.89 30.12 37.17 39.24 40.08 40.72 41.31 39.43 37.86

GFSGBSN_sfc_wetblb_021.txt.gz
Wetbulb
56.85 56.81 56.48 56.88 57.21 57.33 57.51 57.15 56.79 56.03 55.61 55.45 55.33 55.37 55.54 55.97 56.25 56.32 55.85 55.73 55.91 56.12 56.40 56.73 56.96 57.14 55.22 51.13 51.27 55.40 59.49 58.27 55.08 53.91 51.32 51.41 50.45 49.10 46.17 46.90 47.63 46.43 46.10 46.42 47.45 46.28 47.01
56.47 56.39 56.45 57.00 57.20 57.11 57.15 56.16 55.89 55.32 55.41 55.14 54.92 55.06 55.20 55.59 55.91 56.23 56.03 55.49 55.27 55.41 55.86 56.35 57.03 57.24 54.61 47.48 54.93 54.64 53.32 54.53 54.27 54.17 51.61 52.40 50.48 50.71 48.95 47.16 47.62 47.53 46.94 46.72 47.21 47.12 46.53
56.32 56.36 56.74 57.18 57.04 56.76 56.72 56.09 55.34 55.12 55.24 54.88 54.76 54.68 54.80 55.18 55.37 55.47 55.65 55.27 55.04 55.06 55.64 56.28 57.05 56.36 51.91 51.85 54.98 54.27 52.57 54.60 53.52 55.36 52.44 52.11 52.24 51.22 50.51 48.02 49.00 46.94 44.91 45.58 45.98 46.14 45.76
56.23 55.80 56.73 57.02 56.66 56.51 56.49 55.95 55.16 54.94 55.16 54.90 54.82 54.60 54.21 54.41 54.58 54.78 54.92 54.53 54.53 54.99 55.58 56.19 56.87 56.64 50.84 55.51 55.49 53.06 52.86 53.38 53.78 54.98 54.44 53.89 53.49 50.67 49.04 49.29 45.70 43.89 43.68 41.35 44.70 46.75 46.43
56.26 55.93 56.82 57.09 56.64 56.41 56.31 55.69 55.12 54.78 54.76 54.70 54.35 54.21 53.94 53.63 53.63 53.74 53.82 53.86 54.21 55.16 55.68 56.19 56.64 54.70 50.29 56.26 52.35 52.94 52.59 51.71 52.76 54.39 53.72 52.36 51.36 47.05 46.77 43.24 41.50 41.87 38.69 39.58 42.51 45.07 46.06
55.25 55.81 56.89 57.02 56.61 56.51 56.61 55.79 54.86 54.45 54.33 54.23 54.23 54.23 53.72 53.47 53.26 52.78 52.94 53.92 54.92 55.14 54.89 54.56 52.63 50.04 50.52 48.59 50.63 51.40 52.24 52.55 51.29 53.44 51.84 50.12 46.43 44.88 43.83 42.74 36.45 38.41 38.67 39.51 39.95 44.04 45.36
54.25 55.26 56.33 56.60 56.61 56.76 56.72 55.95 54.78 54.03 54.25 54.21 54.25 54.17 53.62 53.14 52.99 52.47 54.09 54.56 49.71 49.61 51.41 47.24 48.07 47.06 47.93 51.11 51.92 50.46 50.75 51.93 50.23 48.54 45.22 46.00 43.74 40.41 41.23 42.40 42.11 41.20 39.83 39.24 41.38 43.48 43.81
53.75 55.04 55.90 56.27 56.35 56.48 56.40 55.75 54.72 54.01 54.09 54.17 54.29 54.23 54.17 53.34 52.93 53.31 54.76 52.78 51.41 53.21 45.93 49.49 48.48 48.88 49.89 50.47 47.61 49.82 51.78 48.38 47.14 43.23 44.95 44.27 40.58 42.94 43.34 42.76 42.01 41.49 39.56 38.96 41.64 42.86 43.25
52.75 54.15 55.06 55.79 55.97 56.14 55.69 55.45 54.90 54.23 53.76 53.55 53.72 54.04 53.92 53.37 53.40 54.39 55.32 55.70 57.39 56.50 45.19 47.16 49.06 48.86 49.39 50.35 46.72 47.44 49.33 48.39 44.42 42.72 41.85 41.42 41.90 44.20 43.18 41.75 41.71 40.88 39.66 39.14 39.30 41.71 42.81
52.28 53.39 54.31 55.20 55.38 55.18 54.72 54.74 54.70 54.44 53.96 53.49 53.31 53.66 53.76 53.49 53.71 54.27 53.41 56.21 57.27 55.53 39.95 42.63 46.45 48.81 49.55 49.52 46.09 50.06 50.11 48.26 45.83 41.86 42.72 42.39 43.28 42.68 42.55 40.91 41.36 38.59 41.77 41.59 40.03 39.98 38.30
52.28 53.53 53.96 54.58 54.70 54.13 53.81 53.90 54.08 54.04 53.97 53.61 52.97 53.90 53.16 53.45 54.19 52.33 55.32 56.83 58.75 51.31 29.08 44.46 46.24 51.40 49.26 46.67 46.85 49.19 50.40 49.09 43.59 42.59 44.10 40.97 41.88 41.95 41.84 41.34 42.65 41.30 42.67 41.18 40.65 39.55 39.04
52.36 53.65 53.94 54.27 54.19 53.77 53.69 53.54 53.40 53.46 53.30 53.27 53.31 53.88 53.71 54.05 54.18 55.14 56.82 56.44 54.40 38.11 29.44 42.67 46.33 45.46 45.65 45.75 46.01 47.78 47.17 49.34 47.72 44.56 44.66 42.63 45.26 43.97 43.16 44.10 44.22 43.97 41.86 40.22 39.79 38.75 34.72
52.20 53.39 53.68 53.87 53.96 53.59 53.71 53.57 53.08 53.02 52.88 52.73 53.95 54.51 55.99 54.43 51.54 56.16 55.15 51.80 39.35 32.12 43.83 40.58 42.23 44.57 42.93 42.22 43.79 44.13 42.62 41.86 40.25 38.19 37.61 41.60 42.51 45.14 45.04 43.25 44.77 43.74 38.97 33.98 34.14 34.15 33.27
52.73 53.25 53.52 53.62 53.84 53.63 53.39 53.25 52.87 52.68 52.45 52.55 53.28 53.86 54.10 55.66 55.93 55.89 52.34 45.34 33.88 38.18 40.53 44.30 43.11 43.04 40.89 42.65 42.54 42.38 41.58 39.70 42.94 40.88 37.88 36.24 35.29 42.41 45.15 42.85 40.40 40.51 38.98 33.83 26.87 29.09 32.07
53.13 53.15 53.18 53.41 53.50 53.42 53.09 53.03 52.65 52.60 52.07 52.45 53.72 51.91 52.43 54.48 56.22 53.04 47.94 36.65 35.40 39.20 43.00 42.19 43.25 40.42 40.67 43.28 41.93 41.42 40.11 39.64 41.53 42.49 37.45 36.32 36.28 43.89 44.63 44.71 43.47 40.36 37.78 40.04 33.58 31.79 31.36
52.90 52.76 53.05 52.97 52.87 52.76 52.63 52.69 52.55 52.43 52.09 52.40 52.25 49.76 51.56 54.25 54.55 49.23 42.55 37.43 40.79 43.74 44.39 44.35 39.47 41.38 38.44 40.56 40.20 40.04 39.68 42.67 41.59 43.39 44.06 40.39 35.70 41.42 43.20 44.62 44.07 42.26 42.54 36.04 35.67 28.30 26.43
52.39 52.16 52.37 52.40 52.43 52.29 52.37 52.40 51.65 51.97 51.84 52.25 49.63 47.94 51.77 55.20 51.39 45.06 37.93 37.73 41.73 45.39 46.02 43.97 41.82 40.77 40.82 40.73 40.55 39.19 39.46 42.53 43.97 43.63 43.99 41.34 38.85 38.14 40.30 39.81 38.43 40.08 38.40 37.55 37.42 34.68 30.20
51.66 51.39 51.48 51.64 51.65 52.26 52.24 50.62 50.01 50.70 51.66 51.28 45.96 44.95 52.77 53.19 43.75 38.86 38.64 42.05 43.59 44.93 46.60 45.38 44.85 43.66 41.88 41.53 40.37 40.20 39.70 41.96 44.39 45.42 41.13 41.71 37.35 33.83 36.61 41.31 42.67 41.14 38.53 37.15 32.98 30.31 33.14
51.16 51.09 51.26 51.18 50.98 52.12 50.62 50.19 50.55 51.14 51.56 51.28 46.98 47.70 51.62 51.07 37.95 35.88 43.15 44.01 44.66 44.47 44.04 44.35 43.39 44.59 44.04 41.07 38.16 41.42 41.95 44.98 44.85 44.73 42.04 42.19 36.10 30.33 32.04 37.81 40.12 39.06 39.59 37.89 35.99 33.94 32.11
51.16 51.06 51.21 51.05 50.91 51.81 50.06 50.17 50.75 51.31 51.70 48.98 45.53 41.72 46.48 45.46 43.53 42.07 41.43 41.71 42.25 45.33 44.24 44.42 43.56 44.85 42.52 40.24 42.20 40.42 41.46 44.82 45.56 44.62 43.84 43.71 36.77 33.58 29.88 32.84 36.28 34.89 36.99 37.68 37.56 32.91 32.42
50.95 51.06 50.86 50.45 50.72 50.57 49.65 50.21 50.89 51.07 51.26 49.20 44.15 42.43 44.13 37.96 41.78 42.46 42.96 42.77 41.71 41.21 44.82 45.17 43.28 43.03 41.44 36.80 39.13 39.81 42.08 42.59 43.62 44.20 43.57 42.37 35.88 35.86 36.38 37.55 36.69 36.44 36.45 36.92 35.57 36.67 33.04
50.95 51.11 50.46 49.87 50.23 49.61 49.27 49.36 50.46 50.96 50.64 47.75 44.46 44.19 42.47 40.56 43.09 42.50 39.58 42.03 42.10 42.55 43.39 42.80 41.74 43.04 42.75 39.44 40.28 38.57 41.82 41.41 40.70 43.10 41.62 40.62 35.56 35.43 33.07 35.66 35.19 33.23 36.05 36.30 36.74 37.19 36.50
50.96 51.10 50.27 49.63 49.84 49.12 48.94 49.40 50.45 50.86 50.94 48.02 46.67 46.14 45.62 37.41 37.24 38.38 38.55 42.27 42.81 43.92 43.77 44.96 43.52 41.64 37.98 43.00 45.21 45.45 44.77 43.33 43.44 41.64 39.16 38.38 35.66 32.34 29.64 32.12 31.92 29.51 32.99 34.98 36.39 37.60 37.82
50.95 51.04 49.54 49.36 50.88 49.14 48.65 49.36 50.02 50.42 50.99 50.26 47.72 43.78 38.81 35.70 35.09 38.30 42.66 43.33 42.25 43.34 42.13 44.04 44.26 41.61 44.24 46.59 45.18 42.58 39.21 38.81 40.20 40.10 41.29 33.82 33.05 32.09 31.08 29.55 25.69 36.21 39.57 39.65 37.60 38.59 39.33
50.47 50.76 49.64 50.62 51.24 48.55 48.40 50.20 50.06 50.37 51.28 50.19 46.78 44.39 40.08 33.12 37.00 40.63 41.94 41.88 42.44 42.63 42.49 43.66 45.63 44.60 45.85 42.99 37.33 33.16 33.22 30.82 32.82 37.34 38.07 38.23 34.36 31.19 29.44 28.38 32.27 36.38 38.29 37.29 35.85 36.34 39.62
50.29 50.42 50.93 50.85 50.90 47.89 48.76 50.39 50.11 49.93 51.10 51.57 49.13 45.28 42.56 35.85 38.42 43.43 42.14 41.92 38.24 37.55 39.51 42.69 46.20 45.56 42.70 35.35 34.33 30.32 29.04 30.03 32.52 33.62 36.57 35.66 33.95 34.35 30.90 27.56 25.86 34.91 38.01 42.51 40.79 31.98 39.66
50.06 50.21 50.52 50.70 50.49 49.05 50.99 50.69 50.10 49.11 50.31 52.30 51.01 49.54 45.48 38.62 41.88 44.67 41.62 41.46 42.14 40.01 37.42 38.38 43.37 40.94 42.01 34.21 31.82 32.00 32.79 33.24 31.17 27.08 25.90 30.17 31.73 31.04 30.75 28.36 32.39 38.13 39.31 40.70 30.87 34.40 41.85
49.59 49.79 49.76 49.95 50.24 50.46 50.53 50.71 50.27 49.92 49.94 52.36 52.17 50.98 48.20 39.99 44.08 47.55 47.67 43.31 43.17 41.93 38.86 41.09 40.98 38.87 36.95 33.49 33.49 32.25 30.72 33.16 32.54 33.66 30.69 31.50 29.15 27.82 28.38 27.74 25.74 38.70 39.83 35.32 40.21 41.81 42.12
49.40 49.48 49.56 49.49 49.42 49.80 50.31 50.64 50.43 50.35 50.38 51.25 50.42 50.75 49.87 46.64 44.87 49.18 51.30 51.27 49.61 47.03 44.03 41.20 41.85 39.54 40.38 35.35 33.26 31.98 31.28 29.07 30.43 31.95 35.00 31.89 35.47 33.37 33.36 33.87 39.73 40.25 41.22 43.72 43.06 40.99 40.79

GFSGBSN_sfc_wetblb_024.txt.gz
Wetbulb
56.96 56.87 56.69 56.67 57.28 57.55 57.48 56.74 56.18 56.32 55.91 55.61 55.53 55.55 55.92 56.34 56.52 56.49 56.30 55.65 55.99 56.30 56.71 56.82 57.07 57.56 59.64 54.65 53.46 58.65 60.31 61.72 59.28 58.05 56.33 55.11 52.99 52.09 48.80 50.48 51.50 50.20 50.38 51.12 50.87 50.22 50.81
56.64 56.78 56.70 56.97 57.38 57.29 56.94 56.17 55.88 55.65 55.43 55.51 55.32 55.36 55.57 55.82 56.26 56.54 56.43 55.87 55.61 55.89 56.08 56.49 57.26 56.85 58.25 50.42 58.39 59.00 57.14 57.94 58.82 58.08 56.71 56.20 54.28 54.54 52.16 51.30 50.59 51.35 51.16 50.55 51.05 50.99 50.34
56.44 56.53 56.73 57.39 57.35 56.85 56.72 55.94 55.59 55.29 55.33 55.20 55.12 55.00 55.18 55.51 55.63 55.93 55.93 55.59 55.26 55.23 55.96 56.60 57.18 59.87 55.63 52.89 58.57 58.60 56.79 56.98 57.91 58.19 56.05 56.45 56.78 54.51 54.64 52.17 52.86 51.55 49.01 50.68 50.44 50.70 50.46
56.29 55.97 56.53 57.23 57.04 56.61 56.53 56.19 55.40 55.14 55.19 54.92 55.03 54.94 54.66 54.74 55.04 55.06 55.20 55.06 54.98 55.39 55.77 56.42 57.40 60.22 52.74 58.28 59.89 57.00 57.21 56.66 58.31 58.79 57.93 57.31 57.67 54.82 53.75 53.13 50.45 49.06 49.17 45.48 49.30 50.38 50.52
56.23 55.88 56.65 57.21 56.69 56.39 56.37 55.93 55.28 54.94 54.72 54.72 54.70 54.48 54.29 53.90 54.02 54.00 54.29 54.37 54.51 55.47 56.28 56.51 60.78 57.74 51.01 59.25 54.84 56.58 56.45 55.11 56.69 57.60 57.47 55.74 55.57 52.82 51.68 49.48 47.03 47.03 43.41 43.21 45.72 49.78 49.85
55.61 55.28 56.82 57.04 56.78 56.59 56.51 56.09 55.22 54.57 54.68 54.66 54.52 54.33 54.05 53.95 53.71 53.49 53.53 54.23 55.18 55.92 57.80 58.72 56.31 53.12 53.24 51.43 54.51 54.90 56.05 55.80 55.18 55.74 54.89 54.05 53.96 50.62 50.60 47.41 42.27 42.42 42.72 43.84 43.88 47.57 49.00
54.64 54.78 56.23 56.86 56.70 56.80 56.60 56.03 55.12 54.35 54.47 54.66 54.80 54.82 54.29 53.66 53.26 52.81 55.00 60.43 55.98 54.62 55.63 51.13 51.20 50.85 51.63 54.66 55.72 54.78 54.57 54.46 54.40 53.80 49.70 51.16 49.74 46.33 46.75 47.67 46.72 45.31 44.09 43.45 45.65 47.88 47.55
54.14 54.60 55.74 56.32 56.48 56.58 56.20 55.77 55.02 54.27 54.35 54.61 54.80 54.86 54.86 54.09 53.45 53.41 61.05 57.82 56.63 58.01 49.95 52.84 52.02 52.31 53.18 54.04 51.50 54.10 56.67 51.85 51.41 48.30 49.98 48.74 45.41 47.29 47.79 47.04 45.95 45.41 43.74 43.74 45.87 47.20 47.35
53.35 53.87 55.08 55.83 55.99 56.02 55.85 55.50 54.92 54.59 54.18 53.96 54.14 54.68 54.78 53.85 53.78 59.40 62.24 59.67 62.31 60.88 50.89 50.92 52.45 51.89 52.22 54.67 51.23 51.89 54.18 51.69 49.66 47.28 47.83 46.17 45.73 47.20 46.38 46.76 45.70 45.60 44.00 43.70 43.54 46.60 47.89
52.92 53.49 54.37 55.20 55.45 55.20 54.84 54.72 54.56 54.56 54.21 54.00 53.88 54.45 54.74 53.24 56.50 60.47 58.43 60.61 63.93 59.84 47.70 46.02 49.03 51.57 52.79 52.56 49.67 54.51 54.31 51.28 48.95 46.48 47.54 46.19 47.30 46.91 46.71 45.14 46.44 43.28 45.78 46.14 45.02 44.67 42.27
52.94 53.63 54.04 54.65 54.61 54.03 53.83 53.93 54.06 54.09 53.88 53.94 53.92 54.69 53.30 53.42 61.11 58.31 59.36 63.09 64.63 60.15 37.60 47.46 49.30 55.13 53.82 50.30 50.31 51.85 54.86 52.62 47.29 46.45 47.83 43.37 45.63 46.04 45.29 44.77 46.97 44.96 47.38 45.81 45.15 44.89 44.11
52.81 53.84 54.12 54.29 54.15 53.71 53.85 53.59 53.43 53.55 53.48 53.45 54.21 54.42 54.44 60.20 63.18 60.50 63.12 63.06 62.29 47.42 35.28 44.98 49.44 48.62 49.39 50.83 50.04 51.91 52.04 53.92 51.58 48.99 48.90 46.66 49.18 48.69 47.50 47.52 47.45 48.31 46.41 45.51 46.29 45.62 39.69
52.56 53.53 53.86 53.97 53.97 53.71 53.71 53.41 53.11 53.03 52.93 53.08 54.11 54.51 59.09 61.31 59.02 63.08 63.36 60.65 46.42 40.28 46.81 43.88 45.65 48.24 47.86 46.67 47.87 49.00 48.38 47.55 45.90 42.95 43.03 45.63 46.20 48.80 49.54 46.73 48.65 48.45 45.28 40.34 38.10 38.49 38.28
52.89 53.37 53.60 53.66 53.89 53.59 53.44 53.25 52.75 52.67 52.54 53.72 53.19 55.31 56.22 61.09 64.08 62.96 61.65 53.48 39.40 42.59 43.89 47.14 47.16 47.55 44.83 46.66 46.65 47.35 46.50 45.30 48.14 46.40 44.63 42.06 39.82 46.28 49.02 46.41 44.52 45.23 44.40 39.47 30.86 34.72 38.52
53.20 53.41 53.31 53.28 53.57 53.35 53.11 53.03 52.64 52.52 52.32 52.84 53.59 60.96 61.46 61.58 62.58 62.09 55.55 45.93 43.57 44.96 46.86 45.94 46.95 44.44 44.34 46.22 46.41 46.29 45.49 44.58 46.28 47.58 42.62 41.66 40.35 47.75 47.36 48.14 47.22 44.58 42.88 44.84 38.44 37.61 36.65
53.05 52.96 52.90 52.72 52.88 52.62 52.59 52.14 50.64 51.46 52.28 52.81 59.77 59.44 59.20 61.77 61.26 60.02 53.59 42.72 45.24 47.40 48.05 47.73 43.12 45.14 42.66 44.61 44.51 44.93 44.29 45.88 45.14 47.61 48.64 44.35 39.94 45.16 45.88 48.19 48.44 46.30 46.77 40.96 42.70 33.25 29.72
52.39 52.34 52.33 52.09 51.73 52.17 52.15 50.50 50.71 51.12 51.93 52.63 59.59 54.22 59.03 61.66 59.79 56.12 48.37 45.77 46.08 48.64 49.64 47.43 45.56 44.32 45.24 44.18 45.29 43.77 43.16 45.57 47.36 46.76 48.47 45.49 43.10 41.98 44.39 43.53 43.03 45.04 43.96 42.96 42.87 40.17 34.21
51.95 51.73 51.69 51.34 51.01 51.93 50.39 50.55 50.87 51.35 51.80 56.15 57.51 51.08 59.55 60.96 52.17 50.83 47.98 47.49 46.12 48.77 50.52 49.39 49.51 47.65 46.09 45.71 44.52 44.05 43.33 45.58 48.17 48.39 44.04 45.89 43.69 39.17 39.34 44.87 46.75 45.53 42.74 42.10 38.24 34.46 38.06
51.55 51.46 51.33 51.07 50.93 50.99 50.20 50.37 51.11 51.34 52.02 59.97 56.51 55.67 59.47 58.77 48.66 47.99 48.02 47.49 48.68 48.39 48.08 48.25 47.20 48.60 48.57 45.77 42.83 45.22 45.35 47.63 48.51 48.08 45.81 46.60 41.85 36.00 37.34 42.21 45.13 42.79 43.60 42.85 40.94 39.70 35.23
51.37 51.40 51.44 51.15 51.03 51.00 50.15 50.26 50.97 51.34 52.03 58.95 56.19 51.41 54.89 55.27 52.26 49.90 47.58 46.78 46.14 49.31 48.07 49.24 47.75 49.12 47.58 45.62 47.25 44.61 44.93 47.22 48.50 47.90 44.02 47.28 43.06 37.84 34.73 37.59 40.59 38.09 40.43 41.86 41.19 35.98 36.14
51.17 51.40 51.30 50.61 50.87 50.63 49.99 50.19 50.67 51.36 51.37 57.90 54.59 51.29 51.45 49.47 49.11 50.13 49.71 48.13 46.39 45.44 49.06 49.67 47.37 47.53 46.67 43.13 44.06 43.90 46.10 46.29 46.98 45.42 47.66 47.04 39.14 40.92 41.48 42.01 41.85 40.67 39.99 40.69 39.26 40.15 35.88
51.05 51.17 50.78 49.80 50.19 49.75 49.61 49.91 50.69 51.18 51.05 56.67 53.46 52.28 51.77 49.26 49.52 49.66 45.67 47.46 46.70 46.27 47.65 46.13 46.65 47.01 47.24 44.28 43.99 43.01 45.05 45.12 43.89 47.02 46.25 46.14 40.05 39.07 36.97 40.60 40.70 38.18 40.77 40.99 40.85 41.03 41.01
51.20 51.11 50.25 50.02 50.03 49.32 49.61 49.78 50.58 50.94 52.44 57.62 54.62 52.67 55.49 43.49 46.99 48.96 47.39 47.75 47.39 49.22 48.04 49.26 49.44 48.08 45.21 47.37 49.65 49.93 49.80 48.85 47.81 45.47 44.09 43.25 41.61 37.67 35.14 37.17 36.92 34.28 38.56 39.70 40.75 42.39 41.67
50.99 51.00 49.81 49.45 51.08 49.27 49.42 50.07 50.24 50.74 53.16 59.08 56.09 54.34 50.97 46.34 48.06 47.95 47.89 48.62 48.04 47.81 47.53 48.26 49.65 47.95 48.30 51.74 50.89 49.63 47.31 46.17 46.52 45.62 46.52 39.64 38.96 36.51 34.58 35.02 30.24 39.62 44.32 43.79 41.41 42.44 43.91
50.49 50.33 49.53 49.60 49.27 49.15 48.95 50.27 50.09 50.21 51.31 56.63 53.48 54.09 51.13 37.68 48.12 46.93 48.25 48.09 48.54 49.21 48.06 48.60 48.65 48.85 52.81 50.24 46.11 39.31 40.07 37.95 39.22 42.02 42.92 44.65 40.22 34.41 32.04 32.49 36.61 39.22 41.51 40.76 39.04 39.54 44.60
50.15 50.55 50.23 50.84 48.49 48.60 49.67 50.34 49.92 48.96 51.30 56.83 54.79 53.27 52.81 40.99 47.60 48.91 48.52 49.48 47.65 47.79 47.67 47.10 49.19 50.63 50.52 47.71 42.84 35.00 35.93 36.34 36.93 38.22 40.82 40.39 40.81 39.96 32.56 30.05 28.28 39.13 42.99 44.81 44.09 35.84 44.35
49.81 50.27 50.68 50.87 48.75 49.13 50.99 50.47 49.88 48.56 51.42 58.31 56.31 55.60 55.24 50.37 49.19 50.05 49.57 48.68 50.07 49.05 47.94 47.92 48.30 47.87 49.50 39.67 34.59 35.47 38.44 39.06 35.77 34.23 33.61 33.85 34.72 33.51 33.51 31.89 35.75 43.41 43.12 44.20 33.64 36.72 44.32
49.60 49.67 50.00 50.22 50.41 50.86 51.14 50.85 50.39 50.33 50.68 57.58 56.24 56.34 55.91 49.63 50.27 51.47 50.91 49.49 49.32 50.99 48.33 48.30 48.02 46.96 43.07 37.31 36.41 37.04 35.50 40.32 37.79 39.59 36.92 37.17 34.73 32.71 32.82 30.43 28.88 43.75 42.94 37.48 42.72 46.13 45.62
49.28 49.33 49.39 49.73 49.94 50.28 50.75 50.94 50.46 50.35 50.34 53.63 56.46 55.94 55.75 54.66 51.57 53.73 54.77 54.68 54.12 53.05 51.53 49.88 48.53 47.52 48.98 43.54 38.47 38.40 35.85 34.48 38.88 35.91 41.46 36.38 40.38 38.64 38.51 38.65 45.85 47.35 44.86 47.03 48.23 46.29 44.04

GFSGBSN_sfc_wetblb_027.txt.gz
Wetbulb
56.00 57.13 57.02 56.86 57.00 57.84 57.81 57.26 57.24 56.10 56.08 56.55 56.17 56.16 56.22 56.60 56.75 56.74 56.58 56.21 56.17 56.36 56.81 56.97 57.37 58.08 60.66 57.52 54.06 59.83 61.81 64.24 61.37 59.75 57.38 55.14 53.16 52.36 48.95 50.10 50.66 49.06 49.34 50.09 50.81 50.99 51.44
56.61 56.80 56.86 56.82 57.43 57.56 57.65 57.29 56.31 56.21 56.19 56.09 56.11 56.01 55.95 55.98 56.61 57.02 56.86 56.31 56.05 56.25 56.40 56.81 57.27 57.03 60.44 51.91 59.06 59.87 59.40 59.27 59.44 58.10 56.17 55.74 53.91 54.16 51.29 51.28 50.89 52.01 51.93 51.91 52.22 51.85 51.82
56.63 56.60 56.81 56.99 57.63 57.37 56.99 57.00 56.66 55.97 55.79 55.79 55.97 55.79 55.61 55.93 56.24 56.20 56.38 56.07 55.85 55.69 56.32 56.84 57.48 61.10 58.58 54.12 59.30 59.85 58.71 58.36 59.65 59.42 55.59 57.25 56.75 54.11 54.36 51.78 53.87 52.70 49.75 51.36 51.95 52.54 51.68
56.41 56.48 55.98 57.24 57.32 57.00 56.93 56.91 56.21 55.72 55.60 55.64 55.65 55.43 55.20 55.41 55.65 55.57 55.63 55.31 55.29 55.90 56.33 56.92 57.36 61.85 54.49 58.82 60.85 57.82 58.41 57.78 59.57 60.09 58.82 58.65 58.62 56.44 54.70 55.44 52.23 50.14 50.88 47.29 50.77 51.63 52.17
56.07 56.22 55.66 57.31 57.08 56.71 56.69 56.65 55.75 55.19 55.37 55.25 55.18 55.26 55.05 54.59 54.66 54.80 54.92 54.94 55.17 55.87 56.66 57.24 61.31 61.73 52.03 58.87 55.97 57.12 58.20 56.24 58.20 59.19 58.73 57.35 57.92 54.26 54.42 50.72 48.48 48.82 45.62 45.37 47.56 51.09 50.82
55.91 55.36 55.86 57.25 57.16 56.83 56.89 56.45 55.42 54.90 54.70 54.62 54.89 54.77 54.72 54.67 54.51 54.18 54.25 54.67 55.88 56.02 58.07 60.98 59.66 54.41 53.77 52.11 54.98 56.46 58.37 58.37 57.17 57.34 55.78 55.19 54.45 51.85 51.55 49.23 43.45 44.44 44.05 44.96 45.33 49.19 49.34
55.58 54.40 55.73 56.67 56.86 56.98 56.70 56.17 55.38 54.88 54.70 54.60 54.70 55.30 55.01 54.46 54.31 53.88 54.81 60.26 57.16 56.94 57.25 53.29 52.99 51.93 52.60 55.18 57.57 55.76 57.12 56.63 56.90 55.53 51.65 53.10 50.28 48.54 48.72 48.91 48.01 46.49 45.11 44.81 47.26 49.32 48.26
54.69 53.59 55.35 56.28 56.60 56.40 56.40 56.13 55.16 54.77 54.84 54.72 54.85 55.52 55.05 54.66 54.31 53.90 60.12 59.38 59.21 59.48 50.79 54.25 54.19 54.53 55.23 56.08 52.33 54.87 58.09 53.76 53.38 50.10 51.28 49.49 48.12 49.30 49.24 48.55 47.11 46.87 45.90 45.79 47.60 48.89 48.31
54.15 53.32 54.95 55.73 56.02 55.88 55.89 55.63 55.06 54.71 54.78 54.76 54.66 55.17 55.34 54.47 54.08 58.74 63.19 61.33 64.39 62.79 51.35 51.63 53.74 53.04 53.58 55.56 52.14 52.72 55.81 53.41 50.67 48.43 48.24 48.15 48.50 49.03 48.25 47.65 46.84 47.46 45.98 46.16 45.74 48.43 49.62
53.78 53.18 54.55 55.32 55.61 55.40 54.87 54.73 54.83 54.85 54.75 54.72 54.80 55.52 55.34 53.69 56.63 63.99 60.95 63.50 65.80 64.04 49.04 47.26 50.38 52.38 53.97 54.31 50.91 55.81 56.03 53.24 50.50 47.32 48.70 48.07 49.48 48.00 47.76 46.57 48.19 45.49 48.08 47.56 46.93 45.98 43.59
53.31 53.41 54.37 54.92 54.90 54.29 53.99 54.09 54.01 54.31 54.55 54.51 54.79 55.28 53.86 53.98 62.96 59.48 61.91 65.55 67.25 64.17 39.17 48.74 50.44 56.62 54.27 51.96 52.46 52.87 56.52 53.59 48.39 48.50 49.21 46.36 47.16 47.31 46.91 47.08 48.96 47.06 49.61 48.03 47.70 46.62 46.27
52.99 53.30 54.25 54.51 54.41 53.99 53.96 53.61 53.49 53.70 53.96 54.49 55.16 56.00 55.36 60.10 65.64 63.01 65.14 66.27 65.47 49.75 37.94 46.38 50.76 50.31 50.75 52.01 51.75 53.44 53.18 55.29 54.23 49.33 50.02 48.50 51.35 50.57 49.35 49.77 49.63 50.38 49.19 48.85 48.57 47.34 40.84
52.93 53.31 53.86 54.18 54.09 53.89 53.82 53.49 53.01 53.29 53.59 54.37 54.61 55.33 60.37 65.00 60.11 65.59 66.91 62.25 46.74 42.73 48.58 45.42 47.45 49.76 49.57 48.90 49.67 51.02 50.11 49.61 48.94 45.33 45.41 47.61 47.96 50.55 51.39 48.57 50.81 50.14 47.34 41.68 39.60 40.15 39.27
52.89 53.40 53.86 53.90 54.11 53.77 53.64 53.10 52.76 52.87 53.59 54.65 54.53 56.80 59.45 64.56 66.58 66.02 63.07 52.69 42.59 45.80 46.04 49.48 49.12 49.39 46.96 49.23 48.64 49.13 48.99 47.46 50.06 48.81 47.35 44.15 42.09 48.07 50.02 48.00 46.06 46.91 46.32 41.38 32.95 36.23 39.89
53.34 53.73 53.61 53.54 53.73 53.61 52.92 51.24 51.54 52.47 52.97 53.90 54.04 64.46 63.90 65.28 66.65 65.22 56.10 46.27 45.79 46.16 48.87 47.87 48.69 46.37 46.00 47.73 48.37 48.51 48.29 46.96 48.10 49.78 45.71 44.00 43.11 49.25 49.22 50.41 49.64 46.85 45.28 47.21 41.77 41.78 37.90
53.57 53.48 53.18 52.81 52.11 52.82 51.53 51.02 51.47 51.94 52.91 53.86 60.67 59.87 60.72 65.46 66.08 62.46 53.08 45.45 47.99 50.12 49.77 49.96 45.17 47.49 44.67 46.45 46.77 47.22 46.77 48.16 47.43 49.33 51.08 46.27 42.53 47.28 47.61 49.83 50.12 47.46 48.89 42.57 44.31 33.03 31.69
52.89 52.74 52.89 51.88 51.32 51.95 50.65 51.02 51.41 51.69 52.33 53.77 60.82 54.78 62.15 66.18 63.84 54.97 48.61 48.56 48.66 51.18 51.61 49.17 47.30 46.20 47.55 46.28 47.53 46.22 45.85 47.79 49.26 48.50 50.08 47.54 44.96 44.55 46.06 45.22 43.94 46.12 45.91 44.73 44.52 41.72 35.07
52.17 52.14 52.08 51.25 51.25 51.14 50.70 50.70 51.14 51.75 52.23 53.78 59.94 52.01 63.27 64.79 52.01 53.04 50.57 49.85 48.55 50.79 52.80 51.06 51.39 49.55 48.43 48.20 46.56 46.23 45.80 48.36 50.42 50.10 45.88 47.74 45.46 40.99 41.90 46.82 48.73 47.41 45.27 44.80 39.18 36.91 40.07
51.91 51.78 51.71 50.94 51.40 51.11 50.65 50.80 50.80 51.59 51.95 63.23 56.72 56.22 63.23 62.32 49.90 49.57 51.20 49.90 51.12 50.47 50.62 50.46 49.21 50.78 51.20 48.55 44.84 47.68 47.89 50.04 50.48 49.87 47.93 48.50 44.57 38.80 40.94 44.61 47.11 44.28 45.52 44.77 43.68 41.46 36.01
51.51 51.58 51.88 51.04 51.30 51.21 50.77 50.69 50.97 51.63 52.35 60.55 57.73 52.69 56.09 57.75 56.94 51.74 49.85 49.30 48.33 51.91 50.62 51.54 50.59 51.74 50.25 47.86 49.83 47.15 47.24 49.14 50.65 50.29 45.25 48.13 45.00 40.69 37.30 40.38 43.51 40.85 42.76 43.81 42.61 37.37 37.90
51.41 51.61 51.56 50.68 50.77 50.63 50.47 50.50 50.83 51.45 52.01 60.02 58.46 54.53 55.34 50.58 51.94 52.72 52.35 50.95 48.61 47.10 51.20 52.20 49.63 49.80 49.03 45.29 47.03 46.19 48.64 48.32 49.28 45.47 48.70 48.46 41.37 43.26 43.77 43.99 43.54 42.54 42.09 42.78 41.18 41.75 37.78
51.32 51.39 50.89 50.23 50.72 50.10 50.12 49.91 50.87 51.29 51.50 60.52 55.53 54.70 56.66 55.10 53.71 52.25 48.05 49.91 48.92 48.50 49.78 48.48 48.88 50.16 49.99 47.20 46.55 45.59 47.26 46.98 46.26 48.67 47.92 48.03 41.90 42.10 39.26 42.79 42.54 40.38 42.36 42.73 42.78 42.65 42.25
51.45 51.10 50.29 50.20 50.81 50.28 49.65 50.31 50.62 51.06 51.99 60.32 59.80 59.20 58.12 47.47 52.57 51.04 50.23 50.29 49.78 51.29 50.55 51.61 51.60 49.85 48.15 49.07 51.66 52.21 51.99 50.91 49.55 47.34 46.12 45.07 43.67 39.38 36.14 40.55 39.30 36.46 40.72 41.91 42.60 43.94 42.91
51.24 50.88 50.18 50.16 51.11 49.80 49.60 50.49 50.33 50.59 52.30 62.28 60.66 59.62 55.08 49.24 51.38 50.92 50.37 51.06 50.46 50.66 49.43 51.86 52.45 50.28 51.44 54.63 53.90 52.34 50.67 49.32 49.20 48.64 49.32 43.98 41.81 39.29 35.62 35.52 30.93 41.86 46.24 45.49 43.26 44.02 45.32
50.74 50.09 49.89 50.76 49.78 49.04 49.40 50.29 48.82 49.51 51.74 61.06 59.06 58.78 54.96 41.83 52.20 50.59 51.18 51.23 51.55 52.23 50.99 51.06 51.19 53.41 55.58 52.46 47.69 41.49 41.15 37.76 41.96 45.28 45.99 47.64 43.45 37.06 33.92 34.28 37.95 40.76 43.49 42.49 41.05 40.64 46.05
50.43 49.63 49.61 51.00 49.22 49.51 50.90 50.53 49.01 49.76 51.58 60.36 58.46 59.27 57.72 45.01 50.55 53.00 51.78 52.40 50.39 50.35 50.19 49.58 52.52 54.81 54.41 50.74 43.96 35.93 37.04 39.06 39.48 41.12 44.40 43.96 45.40 41.13 35.36 31.05 29.53 40.48 45.21 46.58 45.78 36.78 46.15
50.19 50.05 50.66 50.74 48.75 49.83 51.54 50.86 50.60 50.39 51.50 60.58 59.53 60.20 58.56 53.87 53.73 53.78 51.91 51.58 53.91 52.42 50.55 50.87 50.73 50.63 53.44 43.32 36.61 36.91 39.56 42.68 37.71 35.53 33.72 35.95 36.85 35.23 34.98 33.33 37.33 44.32 45.47 46.59 34.78 37.81 46.79
49.80 50.07 50.22 50.31 49.09 51.42 51.66 51.13 50.58 50.56 51.11 58.66 59.13 60.25 58.86 53.80 53.42 54.43 53.89 52.61 52.82 53.19 49.63 51.87 50.31 50.47 49.17 38.24 36.97 40.46 37.67 42.78 40.81 42.35 39.47 36.98 35.14 33.78 35.88 32.32 29.95 46.07 45.03 38.84 43.96 47.86 45.63
49.44 49.62 49.88 50.03 50.61 51.13 51.39 51.26 50.89 50.57 50.83 53.12 58.61 59.94 60.49 57.00 55.00 57.44 57.21 57.09 56.45 55.83 54.71 53.23 50.62 50.77 51.17 46.65 41.53 42.57 39.25 38.50 40.10 37.48 45.20 38.33 42.14 39.28 40.00 40.31 47.32 48.04 46.48 47.87 48.70 45.57 43.89

GFSGBSN_sfc_wetblb_030.txt.gz
Wetbulb
56.24 56.84 57.20 57.36 57.02 57.39 57.93 58.20 57.64 56.42 56.09 55.85 56.46 56.77 56.63 56.75 57.23 57.40 56.72 56.41 56.65 56.64 56.73 57.02 57.44 58.03 58.96 57.11 54.69 59.38 62.60 65.14 60.86 60.18 58.03 55.61 53.21 52.07 49.01 49.63 49.88 47.73 47.70 49.08 49.75 50.06 51.13
56.54 56.97 56.90 57.08 56.87 57.66 57.79 57.75 57.50 56.15 56.08 56.57 56.36 56.35 56.31 56.52 56.91 57.20 57.10 56.67 56.29 56.47 56.62 56.82 57.26 57.43 58.66 51.92 58.67 59.51 58.92 58.89 58.93 58.19 55.91 55.62 53.74 53.72 50.52 49.76 49.40 50.32 49.93 50.01 50.70 50.98 50.74
56.29 56.67 56.81 56.96 57.21 57.67 57.29 57.25 57.05 57.05 56.57 56.33 56.33 56.16 56.17 56.21 56.33 56.58 56.62 56.19 55.91 56.07 56.50 56.79 57.42 59.02 58.35 55.09 58.72 59.26 58.49 57.88 58.80 58.51 56.18 56.81 56.52 53.20 53.48 51.15 52.89 51.46 48.70 50.23 50.82 51.40 50.83
56.21 56.31 56.67 56.75 57.24 57.28 57.03 56.97 56.91 56.46 56.21 56.33 56.31 56.21 55.56 55.72 55.95 55.79 55.87 55.57 55.57 56.04 56.54 56.97 57.25 60.24 55.49 59.19 59.70 58.01 58.04 57.13 58.45 59.32 58.03 57.67 57.92 56.12 54.41 54.17 51.10 48.49 49.71 45.88 50.08 51.24 51.73
56.33 56.28 56.08 56.86 57.24 57.01 56.85 56.88 56.69 56.02 55.95 56.16 56.16 55.79 55.34 54.99 55.03 55.08 55.28 55.31 55.25 56.13 56.61 56.97 58.49 59.75 54.11 59.08 55.61 56.94 57.68 55.79 57.25 58.16 58.52 57.44 57.10 52.94 53.05 49.01 47.03 48.19 44.19 46.06 47.50 51.04 50.88
56.04 55.92 55.19 56.76 57.13 56.95 57.19 56.99 56.29 55.57 55.56 55.46 55.56 55.50 55.25 55.08 54.77 54.69 54.59 54.72 55.32 55.66 57.41 60.53 61.08 55.50 54.55 52.25 55.06 55.96 57.73 58.18 55.88 56.43 54.41 54.32 53.75 50.59 50.41 48.13 41.95 43.57 43.95 44.90 44.86 48.51 48.45
55.64 55.22 54.79 56.25 56.87 57.08 56.90 56.68 55.99 55.40 55.17 55.20 55.49 55.47 55.34 54.89 54.95 54.55 54.28 58.21 55.85 55.63 57.85 53.32 52.61 52.59 52.14 54.47 56.12 55.09 57.10 56.32 56.71 54.80 50.40 52.77 48.81 46.71 47.71 48.39 47.37 46.39 45.26 44.33 46.95 49.26 47.10
55.12 54.35 54.44 55.88 56.32 56.45 56.69 56.34 55.72 55.32 55.19 55.03 55.02 56.32 55.26 54.82 54.78 54.56 57.25 58.61 59.35 59.59 51.13 54.40 54.16 54.01 54.74 56.08 51.67 53.91 57.43 53.19 52.37 49.34 52.13 48.63 46.26 49.36 49.50 48.71 47.09 46.31 45.33 45.58 47.84 48.98 47.35
54.97 53.51 54.31 55.57 56.20 56.10 56.03 55.64 55.38 55.17 55.20 55.43 55.35 56.03 55.59 54.80 54.38 56.49 61.26 61.54 64.51 64.24 51.03 51.50 53.91 52.86 53.70 55.68 52.05 52.28 55.15 53.84 50.91 49.51 48.38 47.25 48.18 49.41 48.07 47.36 46.56 47.04 45.47 46.40 45.27 48.17 49.19
54.68 53.02 54.22 55.08 55.58 55.54 55.11 54.85 54.89 55.16 55.22 55.15 55.29 55.96 55.27 53.78 56.34 63.70 60.70 63.24 65.55 65.79 47.25 46.33 49.92 51.78 53.88 54.37 50.38 55.15 55.68 53.52 50.29 47.47 47.98 48.33 49.47 47.82 47.46 46.74 47.76 44.34 49.13 47.68 46.15 45.09 41.14
54.40 52.50 54.11 54.87 54.93 54.52 54.26 54.06 54.02 54.46 54.90 55.15 55.67 56.25 54.44 53.19 60.47 59.19 62.23 64.80 66.44 63.79 38.60 48.91 50.10 56.26 53.95 51.82 52.23 51.96 55.61 53.07 48.66 48.35 48.94 46.41 47.10 47.35 47.04 47.46 48.73 46.58 49.52 47.46 47.12 45.03 44.73
54.46 52.51 53.95 54.57 54.54 54.34 54.12 53.66 53.48 54.01 54.79 55.61 55.97 56.56 54.88 58.43 64.68 63.58 65.48 66.30 64.55 48.16 38.50 46.12 50.47 50.40 49.91 51.46 51.59 53.02 52.16 54.91 54.22 48.69 49.94 48.49 51.55 50.56 49.35 49.66 49.80 50.07 48.78 48.63 48.17 45.84 39.48
54.15 53.26 53.76 54.30 54.36 54.24 53.96 53.33 53.20 53.65 54.75 55.23 55.53 55.67 57.07 64.93 60.87 65.98 67.37 62.07 45.35 42.44 49.07 45.37 47.25 49.95 49.70 48.52 49.73 50.79 50.09 49.66 48.18 44.41 44.74 47.54 48.05 50.81 50.95 48.06 50.81 49.38 46.13 40.74 38.93 39.07 38.06
53.24 53.70 53.57 53.99 54.02 53.98 53.19 51.21 51.78 53.12 54.36 55.41 56.33 55.98 61.07 65.21 66.12 66.75 63.53 52.68 41.61 46.15 46.07 49.86 49.02 49.46 47.15 49.09 48.76 49.33 48.98 46.68 49.90 49.42 46.35 43.38 41.12 48.02 50.20 47.97 45.66 46.98 45.53 41.68 32.57 34.96 38.31
53.21 53.79 53.53 53.34 53.60 53.43 51.62 51.05 51.53 52.48 53.61 55.17 54.10 65.38 64.85 65.81 67.11 66.37 56.64 45.36 45.70 45.91 49.42 47.73 48.41 46.04 45.90 48.40 48.72 48.63 48.33 46.73 47.76 49.81 45.48 43.52 43.29 49.27 49.22 49.94 48.90 45.91 44.17 46.81 40.56 43.31 38.14
53.50 53.73 53.36 52.80 51.44 51.76 51.08 50.88 51.38 52.10 53.04 54.34 60.76 60.18 60.32 66.21 67.33 62.80 53.02 45.64 48.94 51.06 49.96 49.71 44.75 47.62 44.47 46.03 46.49 47.58 46.96 48.73 47.42 49.50 50.93 46.36 42.57 47.51 47.69 49.33 50.61 47.19 47.75 41.30 44.17 33.03 31.51
53.40 53.33 52.99 52.13 50.84 50.90 50.97 50.98 51.03 52.20 52.72 54.06 63.04 54.02 62.70 66.46 65.15 55.09 47.55 49.58 49.63 51.60 51.96 48.90 47.46 46.28 47.59 46.33 47.80 46.73 46.78 48.11 49.88 48.55 50.16 47.61 45.82 44.63 46.50 45.08 43.22 45.08 44.04 44.79 43.75 41.48 34.38
52.37 52.39 52.35 51.54 51.18 50.85 50.53 50.80 50.87 52.13 52.52 55.62 62.78 50.09 64.26 66.10 50.75 52.01 49.75 50.76 48.13 50.67 53.06 51.47 51.71 49.43 48.32 48.26 46.97 46.59 46.28 48.48 50.65 50.23 46.22 46.99 45.54 41.46 42.36 46.81 48.24 46.79 44.63 44.31 39.68 36.54 39.68
52.03 51.98 52.18 51.38 50.55 50.76 50.53 50.45 50.68 51.94 52.02 61.97 54.61 56.09 63.31 63.00 48.52 49.89 51.62 50.51 51.61 50.31 50.42 50.40 49.67 51.14 51.88 48.84 45.31 48.10 48.15 50.37 50.71 50.30 47.21 47.77 45.09 39.54 40.51 44.42 47.27 43.41 44.80 44.51 43.91 41.96 35.69
51.67 51.63 52.05 51.39 50.64 50.58 50.56 50.62 50.82 51.98 52.81 58.94 58.33 52.09 54.28 56.55 57.23 51.36 49.58 49.03 48.62 53.02 51.71 52.03 51.09 51.95 50.36 48.52 50.14 47.24 47.21 49.67 51.18 49.68 46.43 48.78 45.13 41.20 37.43 39.91 43.17 40.38 42.26 43.59 42.46 37.39 37.11
51.39 51.52 51.85 51.06 50.44 50.30 50.38 50.42 50.86 51.82 52.36 58.51 58.44 53.65 54.33 49.38 51.59 52.23 51.56 50.46 48.73 47.55 51.86 52.51 49.92 50.03 49.02 45.90 47.13 46.68 48.68 48.13 49.59 45.86 48.61 48.78 41.97 43.81 43.77 43.57 43.06 41.58 40.89 41.54 40.11 41.36 36.15
51.35 51.38 51.29 51.07 50.34 49.95 50.03 50.32 51.06 51.44 51.33 59.08 55.49 54.40 55.93 54.76 53.97 52.08 48.36 49.59 49.11 49.61 50.30 48.83 48.72 50.25 50.69 47.38 47.49 46.21 48.16 47.61 46.68 48.74 47.81 48.78 42.37 42.78 39.33 42.99 42.13 38.79 40.61 42.03 42.04 42.18 41.82
51.41 51.42 50.88 50.66 50.67 49.82 49.56 50.60 50.86 51.01 52.49 60.65 59.83 60.53 58.25 48.57 52.62 51.47 50.55 50.44 50.16 51.72 51.54 52.65 51.63 50.39 48.12 49.67 51.79 51.91 51.88 50.85 49.70 47.85 46.46 45.90 44.55 40.24 36.48 39.77 38.31 36.07 40.43 41.64 42.26 43.57 42.72
51.32 51.16 50.50 50.58 50.76 49.81 49.65 50.52 49.40 49.60 51.53 62.03 61.31 59.82 55.46 50.69 51.82 50.58 51.51 51.76 50.84 51.34 49.49 52.00 52.87 50.58 52.25 54.19 53.32 52.18 50.66 49.45 49.20 48.91 49.69 44.09 42.27 39.11 34.57 35.43 30.29 41.16 45.32 44.71 42.51 43.57 44.68
50.68 50.29 50.23 50.81 49.64 49.27 49.80 50.39 49.69 50.05 51.05 61.75 61.36 60.21 54.67 40.87 52.30 51.34 51.55 51.12 52.25 52.29 51.29 51.19 52.00 54.06 55.37 52.30 48.32 40.61 41.64 38.09 41.99 46.06 46.22 48.30 43.13 36.85 34.34 33.79 37.38 40.60 43.56 42.11 40.77 39.84 45.42
50.25 49.51 49.81 50.71 49.14 49.42 51.50 50.91 50.42 50.71 51.80 60.94 59.55 61.64 59.03 46.64 50.75 53.30 51.43 52.39 50.55 50.43 50.16 49.75 53.79 56.32 54.26 50.66 42.78 36.59 37.64 40.25 39.14 40.78 45.37 45.54 45.71 41.04 35.68 29.62 28.64 40.38 44.85 47.11 45.74 35.54 46.00
49.74 49.24 49.53 49.54 49.29 49.48 51.64 50.95 50.75 50.79 51.58 59.84 59.57 62.46 59.58 55.44 55.06 55.25 52.61 52.09 54.14 52.69 50.47 50.41 50.47 50.99 54.03 42.50 33.80 34.81 39.54 43.09 38.08 35.54 34.47 35.74 36.87 34.49 34.51 31.97 35.84 43.83 45.91 46.93 34.10 36.92 45.55
49.77 49.65 50.49 48.86 49.38 51.82 51.72 51.08 50.62 50.69 51.41 57.72 59.40 62.25 59.99 54.31 54.29 56.04 55.72 53.97 53.59 54.42 50.16 51.77 50.05 51.49 49.62 36.88 35.79 39.61 37.78 43.40 41.76 42.88 37.81 35.39 34.09 32.80 34.99 32.56 29.76 46.57 45.46 38.23 44.06 47.12 45.33
49.53 49.89 50.08 49.82 51.00 51.72 52.23 51.38 50.89 50.74 51.22 52.96 58.11 60.83 62.06 57.42 55.20 59.14 57.81 57.71 57.14 56.56 54.35 54.18 51.02 50.86 50.59 45.03 41.70 43.67 37.92 37.72 39.30 38.70 45.28 39.39 42.60 40.45 39.21 38.08 47.04 48.11 46.11 47.75 47.47 43.95 42.99

GFSGBSN_sfc_wetblb_033.txt.gz
Wetbulb
56.75 56.63 57.45 57.31 57.72 57.54 57.70 58.36 57.96 57.40 56.53 55.60 55.16 55.66 56.82 56.86 57.18 57.21 57.02 56.39 56.42 56.78 56.88 57.13 57.50 57.52 56.08 54.83 54.09 56.87 62.50 62.76 60.14 57.36 56.42 55.59 51.02 47.97 45.30 45.63 45.94 43.35 44.27 45.95 46.70 47.61 47.36
57.10 57.11 57.23 57.48 57.50 57.05 57.80 58.11 57.51 57.05 56.84 56.40 56.45 56.51 56.41 56.45 56.46 56.82 56.74 56.57 56.21 56.37 56.64 56.95 57.17 57.41 55.46 49.80 57.67 56.70 55.86 55.88 57.17 56.74 55.55 55.23 51.90 51.14 48.59 46.81 44.81 46.07 45.64 45.41 44.81 47.20 47.17
56.73 56.96 57.24 57.20 56.96 57.24 57.69 57.22 57.17 57.19 56.97 56.73 56.35 56.19 56.09 56.25 56.33 56.25 56.33 56.25 55.83 55.81 56.22 56.89 57.43 57.20 55.98 55.19 55.53 54.61 56.01 54.72 55.02 55.20 53.68 53.70 53.48 51.70 49.97 48.27 49.25 48.45 44.64 45.94 46.39 46.93 45.60
56.43 56.58 56.74 56.86 56.47 57.14 57.08 56.89 56.99 57.13 56.61 56.49 56.47 55.97 55.52 55.32 55.48 55.50 55.61 55.34 55.18 55.65 56.15 56.62 57.23 56.02 53.15 59.19 54.29 55.99 54.45 54.21 55.83 56.42 56.15 55.42 54.94 52.62 51.05 49.56 48.37 45.15 44.07 40.33 45.68 47.66 47.93
56.52 56.51 56.71 56.31 56.59 56.84 56.61 56.75 56.83 56.71 56.38 56.03 55.91 55.73 55.14 54.77 54.51 54.69 54.77 54.82 55.00 55.76 56.36 56.53 54.97 54.99 52.14 57.74 53.73 54.22 53.80 54.86 55.80 56.09 55.86 55.94 52.79 49.69 49.12 43.36 40.59 41.78 37.70 40.86 43.29 47.78 46.69
56.35 56.54 56.55 55.99 56.71 56.92 56.78 57.01 56.67 55.97 55.57 55.49 55.23 55.02 54.72 54.51 54.32 54.00 53.92 54.70 55.40 55.03 55.78 57.52 58.06 52.11 56.25 51.54 53.15 53.56 53.59 56.64 54.46 55.19 53.39 51.83 48.85 44.84 43.89 41.28 35.98 38.52 39.25 42.85 40.90 42.88 43.46
56.61 56.18 55.57 55.82 56.56 57.00 57.04 57.00 56.37 55.52 55.30 55.37 55.39 55.00 54.72 54.43 54.27 53.82 52.25 52.13 51.21 51.58 54.66 51.14 50.96 52.87 51.09 52.40 53.83 52.38 54.56 54.81 53.70 51.62 45.79 48.65 43.23 40.29 40.86 43.18 44.02 42.87 41.69 40.27 41.50 44.99 42.35
56.49 55.76 54.66 55.47 56.54 56.70 56.73 56.64 55.80 55.36 55.22 55.26 55.47 55.15 54.64 54.46 54.29 54.31 52.06 54.27 55.55 54.79 48.14 55.59 53.48 53.34 54.30 53.69 50.11 52.40 55.26 50.53 50.09 45.72 48.45 45.15 40.97 45.49 47.12 46.03 44.66 43.78 42.38 41.57 43.17 45.98 43.32
55.83 55.18 54.08 55.30 56.02 56.18 55.96 55.71 55.36 55.18 54.98 54.85 55.10 55.47 54.89 54.05 53.88 52.37 54.75 57.70 61.02 60.35 46.44 50.39 53.48 51.43 53.48 54.10 50.89 49.52 52.70 51.13 48.09 46.22 46.09 42.57 44.80 48.39 46.93 45.81 44.63 44.18 42.31 41.86 41.58 44.44 43.79
55.31 54.67 53.58 54.97 55.57 55.53 55.26 54.85 54.85 55.12 54.94 54.88 55.01 55.20 54.24 53.52 52.89 57.68 55.39 59.88 61.81 60.44 40.74 45.63 48.93 50.90 53.13 53.17 49.13 52.61 52.74 50.96 48.25 45.37 45.67 44.43 47.65 47.00 45.64 45.33 44.92 41.78 46.93 45.70 43.90 40.61 35.15
55.00 54.24 53.74 54.61 54.86 54.41 54.15 54.15 54.15 54.41 54.87 54.93 54.96 55.00 53.41 54.62 53.56 56.61 58.74 61.18 60.59 56.78 28.31 46.63 49.05 52.45 51.26 50.84 49.50 50.04 51.54 51.05 46.50 46.20 46.08 43.22 44.17 45.57 45.32 45.11 46.50 44.23 46.98 45.02 44.14 40.11 37.58
54.68 54.03 54.23 54.57 54.26 54.02 53.88 53.57 53.53 53.84 54.25 55.01 55.47 55.07 53.78 54.48 54.66 59.84 62.44 62.06 56.96 42.88 30.61 46.13 49.17 48.75 47.06 49.92 50.62 49.99 50.06 52.05 51.31 46.91 46.20 44.87 48.75 46.78 45.88 48.17 47.80 48.37 45.48 44.92 43.70 40.49 31.51
53.92 53.21 54.44 54.27 54.00 53.94 53.45 51.96 51.93 53.37 54.10 55.10 54.86 54.76 54.85 60.47 56.59 61.33 61.83 56.14 39.21 36.24 47.97 43.43 45.02 48.44 47.73 46.83 47.92 48.28 46.79 45.55 43.30 39.40 39.83 44.33 45.17 47.36 48.80 44.56 47.33 45.43 40.46 32.41 31.16 30.79 30.70
53.59 53.06 54.08 54.02 53.79 53.67 51.78 51.65 51.20 52.66 53.67 54.64 55.32 54.37 58.87 63.03 63.17 62.36 58.18 47.54 35.83 44.09 44.35 47.65 47.28 47.85 45.24 47.17 46.70 47.81 45.61 42.39 46.05 46.17 42.57 39.16 36.76 44.28 48.09 44.99 41.97 42.81 41.03 30.94 27.65 27.46 31.88
53.44 52.93 53.92 53.63 52.87 51.64 50.89 51.06 51.19 52.24 53.22 54.72 53.94 60.06 59.78 61.20 62.94 60.33 51.63 40.23 40.66 44.79 47.78 46.18 46.63 43.89 43.89 47.41 46.58 46.40 43.94 42.96 43.99 45.20 40.74 40.15 39.50 46.34 47.22 46.93 45.62 41.94 38.20 42.74 35.92 35.29 30.46
53.16 52.99 53.40 52.97 51.23 51.18 50.38 50.77 50.99 51.87 52.83 53.31 55.67 55.79 56.76 61.71 61.73 57.74 47.45 42.80 46.50 49.34 49.08 48.09 42.67 44.99 41.22 43.53 43.93 44.29 43.99 46.87 45.40 46.74 46.74 43.53 38.52 45.15 45.99 46.53 47.71 44.58 44.61 35.28 36.19 26.66 26.65
52.81 52.95 52.97 52.54 51.00 50.81 50.08 50.41 50.87 51.89 52.59 53.51 56.42 49.22 58.08 62.40 59.58 50.27 40.46 44.41 48.13 50.76 51.25 48.08 46.00 44.69 45.66 43.37 44.67 44.12 44.22 46.47 48.05 46.83 46.05 43.37 41.14 40.55 43.69 41.15 39.66 41.11 40.12 40.39 39.61 34.16 26.90
52.22 52.28 52.08 51.93 51.40 50.86 49.86 50.25 50.72 51.82 52.46 54.33 54.64 44.31 59.35 60.32 44.82 45.38 41.55 48.54 47.28 49.04 51.82 50.70 49.56 47.64 46.17 45.79 44.65 44.29 43.78 45.55 48.67 47.89 43.03 43.40 41.33 33.47 39.03 43.94 45.73 43.06 41.63 41.40 29.39 31.56 31.93
51.94 51.82 51.84 51.56 50.48 50.85 49.90 50.12 50.49 51.84 51.97 56.60 50.33 51.64 58.90 58.57 38.41 40.70 47.11 49.61 50.03 48.52 48.63 48.88 47.88 49.60 49.14 45.77 41.81 45.48 45.37 48.84 49.37 46.67 43.39 43.94 38.57 29.99 35.63 40.45 44.25 40.22 41.92 41.95 40.65 33.63 30.08
51.55 51.39 51.66 51.59 50.45 50.31 50.06 49.80 50.08 51.73 52.34 54.66 52.86 43.17 50.56 52.06 51.18 47.14 46.20 46.15 47.02 50.96 50.18 50.66 49.10 49.65 47.28 44.98 47.43 44.01 44.35 48.56 48.90 46.58 45.39 45.67 41.48 35.94 29.80 35.30 38.76 36.00 38.92 39.56 37.96 28.27 30.12
51.27 51.32 51.38 50.98 49.98 50.21 49.98 49.86 51.02 51.68 51.94 54.88 54.05 47.55 48.00 40.63 43.80 47.19 47.52 47.72 46.55 46.11 50.17 50.44 47.68 48.13 46.15 40.10 43.69 43.45 45.59 45.99 47.75 45.69 45.93 44.33 36.32 39.89 40.40 40.18 39.89 38.26 37.67 37.57 35.73 36.12 29.63
51.27 51.10 51.21 50.56 49.86 49.67 49.59 49.62 51.18 51.22 51.31 53.92 52.50 50.88 49.63 46.01 47.30 46.96 45.05 45.70 46.66 47.90 47.91 46.74 45.92 47.73 47.37 43.24 44.56 42.50 45.41 43.94 43.25 44.95 43.97 44.95 35.25 35.28 32.77 39.94 38.97 35.54 37.43 38.13 38.55 38.83 37.85
51.23 51.19 50.76 50.34 50.00 49.57 49.38 50.25 48.50 49.33 52.17 54.65 54.34 55.42 52.37 45.93 45.30 44.66 44.68 47.57 48.28 49.00 49.35 50.84 48.25 45.93 42.12 45.88 46.92 46.98 46.85 45.94 46.62 43.64 42.09 41.90 34.79 30.81 28.28 35.51 32.89 27.74 35.08 38.26 38.81 39.88 38.67
50.99 51.23 50.74 50.22 50.11 49.56 49.20 49.80 48.63 48.64 51.95 57.54 56.29 55.64 45.89 40.17 45.62 46.50 49.56 49.52 49.09 48.77 46.56 49.39 49.81 45.67 48.13 50.04 47.70 46.41 44.55 44.08 46.32 44.67 47.21 36.90 34.33 31.87 24.06 28.49 17.70 37.13 42.17 42.19 40.12 40.76 41.26
50.73 50.63 50.35 50.41 49.75 49.24 50.24 50.69 50.59 50.43 51.47 56.41 56.07 55.55 46.06 36.07 47.72 48.05 48.25 48.07 48.67 48.99 47.45 47.97 49.49 50.23 50.38 48.82 38.59 33.02 32.91 31.26 37.41 43.20 43.03 44.43 33.47 25.92 27.23 25.74 31.75 37.10 41.24 39.56 37.05 36.34 42.64
50.37 49.53 49.49 50.49 49.40 48.97 51.17 50.58 50.58 50.90 51.51 56.53 55.80 56.85 51.75 40.75 43.54 51.67 47.51 47.89 44.21 43.97 44.83 46.81 51.09 51.70 51.10 41.14 31.98 27.02 27.44 33.24 34.65 38.02 41.06 43.22 37.56 29.01 21.96 17.90 17.24 33.68 41.77 44.20 42.38 29.08 42.66
49.41 49.28 49.59 49.67 48.80 50.43 50.91 50.67 50.50 50.73 51.61 56.89 55.38 57.13 55.58 46.91 49.67 50.97 46.50 45.94 49.72 46.94 41.52 45.71 46.29 45.34 46.95 35.97 32.44 27.53 28.73 39.51 31.93 30.64 27.92 28.61 31.75 24.68 21.64 18.96 28.75 40.29 43.33 44.50 28.10 30.65 41.52
48.39 48.62 49.34 49.02 49.37 52.02 51.15 50.56 50.39 50.59 51.43 56.11 54.06 57.06 55.02 47.70 49.80 53.37 53.45 50.02 51.40 49.40 40.34 45.93 41.84 41.94 37.28 32.73 28.16 31.16 31.05 33.31 33.19 38.52 33.05 28.84 26.67 28.85 30.18 24.99 22.43 43.92 43.00 33.68 37.99 42.19 41.39
48.50 49.53 48.93 48.82 50.49 51.80 51.58 50.84 50.78 50.85 51.22 52.52 52.91 56.80 57.58 52.86 50.71 54.16 53.38 53.78 53.72 53.10 49.37 47.46 43.65 46.66 44.60 36.88 35.79 34.39 33.65 34.22 32.61 28.52 40.97 31.76 35.59 31.38 32.36 30.63 39.76 43.15 42.29 43.26 43.53 40.60 40.57

GFSGBSN_sfc_wetblb_036.txt.gz
Wetbulb
58.11 57.70 57.32 57.24 57.56 57.47 57.24 57.97 58.06 57.54 57.13 56.91 55.79 55.06 55.24 56.07 56.89 57.10 56.62 56.35 56.37 56.46 56.58 56.69 57.00 57.14 55.20 52.85 52.08 57.81 62.70 62.35 60.14 56.40 54.07 53.77 51.65 47.92 43.98 43.74 43.14 42.66 43.42 44.75 46.15 46.40 43.51
57.69 57.29 57.33 57.42 57.26 57.20 57.09 57.89 57.81 56.96 56.91 56.73 56.51 56.11 56.23 56.59 56.57 56.48 56.33 55.87 55.97 56.07 56.21 56.46 56.98 56.82 53.31 47.80 57.55 55.01 56.03 59.03 55.96 54.47 53.80 53.76 52.05 50.94 47.52 45.78 42.85 44.40 44.04 44.12 44.29 44.51 45.64
57.67 57.30 57.06 57.09 57.07 57.10 57.00 57.18 57.04 56.89 56.83 56.73 56.33 56.01 55.89 56.01 56.19 56.01 55.89 55.59 55.26 55.52 55.99 56.39 56.83 56.10 54.43 53.21 58.40 55.95 54.33 52.97 53.41 54.56 52.30 52.71 52.35 50.59 49.40 45.30 46.75 45.06 42.05 43.45 43.83 43.95 43.11
57.13 57.11 56.71 56.95 56.66 56.02 56.52 56.51 56.59 56.87 56.79 56.45 56.31 55.73 55.22 55.34 55.14 55.20 55.16 54.88 54.86 55.30 55.72 56.13 56.90 55.02 50.26 59.15 54.57 54.12 53.02 52.80 54.42 54.97 54.67 53.43 52.89 51.16 48.54 48.43 46.92 44.15 42.50 38.74 43.63 45.26 45.97
56.99 56.86 56.84 57.01 56.00 55.92 56.11 56.13 56.41 56.77 56.63 56.11 55.71 55.34 54.88 54.49 54.10 54.14 54.12 54.20 54.37 55.35 55.80 56.10 53.50 53.22 47.79 58.75 51.81 53.37 52.26 53.31 54.35 54.40 53.38 54.26 51.80 48.01 47.50 41.74 39.57 40.77 35.97 38.80 41.68 45.92 44.65
57.09 56.88 56.95 56.73 55.60 56.14 56.47 56.35 56.23 56.21 55.66 55.34 55.10 54.84 54.43 54.18 53.82 53.43 53.11 53.92 54.93 54.64 54.81 56.37 56.60 50.14 53.97 53.21 51.66 51.74 52.50 54.76 52.86 52.39 51.06 49.80 46.45 43.37 41.98 39.73 34.29 37.42 36.99 40.51 39.35 41.77 42.65
57.13 56.84 56.87 56.09 55.46 56.40 56.74 56.62 56.09 55.40 54.92 54.98 54.70 54.62 54.37 53.77 53.65 53.17 51.59 49.76 48.73 49.43 52.00 47.71 49.78 51.47 51.41 52.38 52.72 50.46 52.24 52.95 52.05 49.72 43.78 47.44 42.44 38.77 40.06 41.77 42.63 41.19 39.20 39.29 39.01 42.63 41.07
56.67 56.57 56.22 55.41 55.60 56.58 56.59 56.68 55.66 54.74 54.79 54.59 54.43 54.44 54.20 53.94 53.61 53.47 50.94 52.29 52.75 53.43 46.38 53.34 53.94 52.99 54.92 51.16 48.68 50.51 53.38 48.63 48.44 44.11 46.82 42.97 39.63 43.75 45.22 45.46 44.16 42.79 40.92 39.12 42.13 44.49 41.56
56.09 55.95 55.55 54.68 55.36 56.36 56.02 55.98 55.02 54.43 54.41 54.18 54.13 54.44 54.06 53.49 53.53 51.59 51.05 54.91 58.43 58.26 48.29 48.67 52.25 50.41 51.14 52.59 48.85 47.90 51.24 49.63 46.58 44.29 43.98 40.88 43.45 46.37 46.35 44.18 43.73 42.58 40.33 39.77 39.72 42.23 41.72
55.38 54.96 54.37 54.03 54.96 55.38 55.12 55.08 54.82 54.51 54.33 54.27 54.15 54.13 53.61 52.80 50.88 53.52 51.15 56.33 57.57 56.52 38.73 43.99 47.45 49.17 51.63 51.61 47.43 50.74 50.94 49.24 47.32 43.19 43.81 42.71 45.84 45.55 44.68 43.37 43.01 39.67 44.56 43.50 41.58 38.08 33.49
54.79 54.45 53.57 53.30 54.12 54.18 53.88 53.74 53.81 54.13 54.29 54.15 53.82 54.08 53.11 53.55 51.79 55.07 57.46 60.80 58.38 54.20 26.14 45.14 47.37 51.33 49.45 48.91 48.26 47.98 50.04 49.91 44.47 44.27 43.92 41.21 43.55 43.85 43.04 43.15 44.45 42.20 44.75 42.69 42.11 37.80 35.81
54.41 54.31 53.32 53.53 53.63 53.64 53.64 53.05 52.21 53.32 53.75 53.98 54.02 54.06 52.87 53.18 52.48 57.49 60.39 59.59 52.02 40.98 28.44 43.28 48.01 46.58 45.66 47.96 47.45 47.64 48.07 50.05 49.56 45.48 44.26 43.66 46.75 44.93 44.07 46.16 45.71 46.49 43.80 42.86 41.14 38.42 30.75
54.02 53.84 53.12 53.59 53.45 53.52 53.03 51.25 51.04 52.61 53.08 54.33 53.74 53.41 53.54 58.94 55.41 59.42 59.16 50.27 37.29 34.18 45.61 41.82 43.06 45.50 45.56 44.63 45.99 45.85 45.20 43.56 41.52 37.53 37.60 42.82 43.75 45.75 46.74 43.18 45.43 43.89 38.79 30.73 30.08 29.66 29.07
53.39 53.18 53.12 53.42 53.43 53.21 51.04 50.99 50.33 51.51 52.99 53.39 53.17 53.31 56.12 60.99 60.99 59.56 53.88 44.10 34.33 42.25 42.49 45.72 45.81 45.89 43.30 45.16 44.84 45.89 43.43 40.79 43.77 44.19 39.22 37.03 34.93 42.32 46.40 42.98 40.10 40.62 39.55 29.67 27.03 26.28 29.40
53.31 52.52 52.93 53.12 52.80 50.86 50.33 50.47 50.29 51.57 52.57 52.96 52.97 56.49 57.96 59.19 60.56 57.20 48.13 38.58 38.63 43.27 45.72 44.26 44.97 42.13 41.98 45.15 44.43 44.05 41.43 41.02 41.98 43.23 39.15 37.73 37.73 44.40 44.82 44.91 43.83 40.15 36.81 40.76 33.54 32.05 28.25
53.20 52.44 52.71 52.53 50.90 50.29 49.91 49.94 50.45 51.47 52.25 52.62 53.99 53.91 54.05 59.62 58.85 52.47 45.38 40.92 44.37 47.59 47.76 46.31 40.77 43.35 39.33 42.14 42.01 42.18 41.87 44.97 43.45 44.92 44.83 41.74 36.38 43.39 44.09 45.33 45.49 42.39 42.72 34.93 33.41 25.47 25.76
52.63 52.38 52.53 51.75 50.67 49.86 49.86 50.17 50.48 51.46 52.08 52.78 54.00 46.63 53.35 59.91 54.26 46.10 38.70 41.90 46.59 49.35 50.11 46.23 44.11 42.25 43.06 41.63 42.76 41.71 41.93 44.57 45.87 45.37 44.07 41.92 39.18 38.74 42.91 39.26 37.70 39.40 37.94 38.06 37.12 32.38 26.11
51.68 51.78 51.76 51.20 50.76 50.02 49.43 49.94 50.04 51.73 52.11 53.31 50.91 42.46 56.07 53.61 40.79 42.23 39.36 45.93 46.92 47.52 49.76 48.26 47.64 46.68 43.70 43.62 42.65 42.43 41.98 43.66 47.31 46.54 40.42 42.16 38.31 31.63 37.02 41.80 43.65 41.06 39.63 38.43 28.22 29.64 30.02
51.38 51.36 51.26 50.97 50.76 50.06 49.25 49.81 49.62 51.58 52.12 53.28 47.71 49.97 56.80 51.10 33.56 37.31 43.62 47.66 48.20 46.69 46.61 46.70 46.16 47.88 47.09 43.90 40.64 43.63 43.53 47.04 46.53 44.77 41.56 41.54 36.32 28.65 33.76 38.98 42.08 38.43 40.06 40.04 37.47 31.42 29.30
51.14 51.03 51.10 51.08 50.12 49.65 49.31 49.70 49.82 51.74 52.20 53.84 50.06 41.75 47.37 50.03 46.17 42.97 42.60 44.15 45.27 48.92 48.15 48.58 47.10 47.99 45.56 43.35 45.40 42.13 42.71 46.65 46.43 44.38 44.47 44.89 39.07 33.79 29.77 33.52 36.46 33.33 36.31 36.99 35.30 26.74 28.70
50.94 50.89 50.88 50.65 49.62 49.63 48.97 49.55 50.87 51.55 51.66 52.50 50.86 44.20 44.38 37.27 41.25 45.41 45.32 45.65 44.54 44.09 48.07 48.22 45.72 45.93 44.28 39.05 41.92 41.22 43.80 44.27 46.03 44.65 44.22 42.44 34.92 37.61 37.59 37.65 37.28 35.93 35.08 35.12 33.22 33.52 28.37
50.73 50.61 50.61 50.23 49.05 48.97 48.74 49.31 50.61 51.01 51.17 51.72 49.57 47.65 46.48 41.87 44.15 44.52 43.41 43.96 44.90 46.07 46.12 44.95 43.88 45.84 45.12 41.49 42.68 41.08 43.30 41.91 41.13 42.57 41.48 42.74 34.09 33.36 31.12 37.68 36.26 33.07 35.28 36.38 36.25 36.23 35.93
50.80 50.57 50.42 49.91 49.51 48.96 48.59 48.45 48.37 48.67 50.93 52.12 54.84 54.54 48.62 43.72 41.12 42.67 42.64 44.25 46.24 47.49 47.50 48.58 46.32 43.05 40.26 43.92 44.60 44.45 44.18 45.26 45.12 41.91 40.49 39.40 32.74 28.50 24.94 32.62 30.68 26.15 34.09 35.79 36.76 37.58 36.36
50.64 50.79 50.36 49.41 49.74 49.05 48.74 48.16 48.79 48.47 50.94 57.49 55.08 51.87 44.09 38.53 42.30 43.31 47.57 47.59 46.63 46.79 45.20 47.47 47.29 43.31 46.43 48.59 45.38 42.94 42.02 43.13 44.03 43.07 43.78 35.27 32.27 28.13 22.20 24.43 16.15 34.22 40.30 40.07 38.28 39.46 39.84
50.32 50.31 50.13 50.19 49.37 49.17 49.79 50.39 50.02 50.20 51.20 54.50 54.14 51.33 43.66 34.71 45.00 45.71 46.76 46.72 46.76 46.79 45.64 46.60 48.21 47.65 48.57 45.17 34.65 31.99 31.42 31.34 36.04 41.25 41.91 40.82 30.86 27.04 19.26 23.84 28.50 34.99 39.17 38.13 35.61 35.33 41.09
49.82 50.00 49.91 50.09 48.62 49.33 50.71 50.14 50.20 50.08 51.14 53.76 53.71 54.21 46.94 40.12 42.28 49.82 45.54 46.39 42.50 41.81 42.53 45.21 49.46 50.52 45.75 36.64 29.49 26.33 26.15 29.63 33.00 36.71 40.03 39.73 33.74 26.63 26.77 15.94 15.27 31.19 39.74 42.53 40.42 29.23 41.58
48.98 49.19 49.70 49.70 48.84 51.64 50.73 50.49 49.99 50.27 51.33 54.16 53.19 54.78 51.37 43.88 46.98 48.61 44.20 44.54 46.92 43.37 39.12 43.20 44.42 43.95 42.83 28.08 22.55 23.67 28.91 36.61 30.55 29.06 26.45 29.38 24.88 24.22 18.82 16.11 26.66 36.07 41.13 42.29 27.96 30.36 40.80
48.30 48.82 49.23 49.31 49.43 50.73 50.31 49.96 49.85 50.41 50.96 52.75 52.63 54.43 52.25 44.72 49.13 51.46 51.40 48.07 47.70 44.52 38.97 43.69 40.54 39.43 36.27 29.18 24.20 26.04 28.75 30.70 31.34 36.01 32.19 29.71 26.12 23.16 23.37 16.90 22.36 40.79 41.04 33.97 36.71 40.57 40.54
47.92 48.52 48.28 49.46 50.68 51.05 50.22 49.98 49.89 50.44 50.66 53.13 50.24 54.90 55.08 50.04 49.36 51.69 52.00 52.24 52.50 50.84 47.04 44.07 41.36 42.72 40.28 34.57 31.66 35.12 32.49 34.48 30.51 27.90 38.12 30.94 33.12 29.98 31.90 30.64 37.50 41.36 39.93 41.87 42.20 39.40 39.27

GFSGBSN_sfc_wetblb_042.txt.gz
Wetbulb
59.62 59.31 59.02 58.61 58.18 57.81 57.23 57.35 57.51 57.16 56.99 57.07 56.81 56.77 56.83 56.98 56.14 55.07 54.80 55.74 56.24 56.34 56.47 56.39 56.54 56.90 52.29 49.12 49.38 56.46 62.68 61.93 55.60 52.80 50.14 50.26 48.99 48.16 43.43 43.42 43.01 41.37 42.64 43.72 44.45 46.31 44.32
59.19 58.80 58.84 58.10 57.73 57.50 57.00 57.25 57.25 56.93 56.67 56.57 56.44 56.32 56.52 56.56 56.63 56.42 56.10 55.80 55.21 55.56 56.00 56.27 56.38 56.44 49.78 43.87 52.74 56.96 57.06 54.91 53.86 52.15 50.87 50.77 50.11 50.11 46.16 43.76 42.48 43.57 42.38 43.21 43.01 42.27 42.95
59.13 58.82 58.52 57.42 57.07 57.07 57.14 56.84 56.59 56.35 56.45 56.38 56.30 56.28 56.24 56.24 56.24 56.02 55.96 55.32 54.93 54.91 55.48 55.97 56.29 54.54 51.13 49.56 53.73 54.68 54.14 54.72 53.64 52.63 50.03 51.89 52.39 49.24 47.41 43.98 44.30 43.23 41.16 42.92 42.47 41.65 42.01
58.93 58.62 58.31 57.13 56.72 56.51 56.27 56.08 56.06 56.07 56.39 56.34 56.68 56.34 55.54 55.22 55.24 55.13 55.22 54.63 54.49 54.85 55.30 55.65 56.23 52.72 48.46 55.56 54.83 55.14 52.99 51.51 52.60 53.17 52.16 51.71 52.27 49.61 46.11 44.83 44.43 41.93 39.77 36.15 40.31 42.51 41.99
58.54 58.24 58.17 57.22 56.53 56.12 55.80 55.76 55.40 56.01 56.39 56.28 56.00 55.72 54.87 54.47 54.17 54.04 53.98 53.79 54.04 54.71 55.32 55.62 50.80 51.13 47.28 55.84 52.92 52.58 50.86 49.61 51.85 51.43 51.45 52.56 49.70 45.20 44.02 39.93 37.64 38.71 34.42 35.47 38.74 42.43 41.74
58.72 58.07 57.60 57.18 56.64 56.17 56.00 55.80 55.22 55.64 55.68 55.68 55.52 55.26 54.57 54.10 53.82 53.31 52.79 53.63 54.36 53.85 53.66 54.93 54.32 46.93 50.12 48.21 52.51 49.64 49.46 51.64 50.19 49.95 48.93 48.10 44.60 41.27 39.44 37.68 32.54 34.25 34.87 36.69 36.39 39.17 41.01
58.70 57.96 57.34 56.83 56.52 56.31 56.25 55.97 55.44 55.44 55.38 55.21 55.09 54.85 54.46 53.89 53.57 52.71 51.02 48.10 46.19 45.71 49.16 46.08 47.26 46.72 50.00 52.82 50.25 47.36 49.19 50.20 49.27 47.75 42.29 44.29 41.40 37.66 36.39 38.44 39.25 38.73 36.46 35.29 36.32 39.72 39.14
57.84 57.46 56.97 56.83 56.50 56.35 56.52 56.02 55.66 55.34 54.97 54.73 54.71 54.36 54.01 53.77 53.50 53.11 48.91 46.36 47.72 49.41 44.91 50.46 50.53 50.76 52.35 52.08 46.88 47.66 51.32 46.60 45.92 41.25 43.14 41.51 37.12 40.61 42.95 41.53 40.71 38.95 36.67 35.33 38.33 40.99 39.74
57.05 56.56 56.50 56.40 56.50 56.35 56.32 55.89 55.66 55.11 54.41 54.02 54.11 53.97 53.87 53.15 53.10 50.61 47.61 50.22 55.79 53.59 46.60 48.26 50.03 48.77 48.70 50.77 46.07 45.41 48.67 46.40 43.33 41.37 40.38 38.92 39.80 43.95 43.59 41.76 41.04 39.37 37.36 35.88 36.95 38.01 39.26
56.47 55.77 55.66 56.03 55.91 55.87 55.52 55.18 55.54 54.89 54.28 53.84 53.62 53.61 52.96 52.60 48.87 48.43 47.46 52.08 56.38 52.80 37.23 41.04 45.32 47.63 48.74 48.72 44.64 48.07 48.22 46.75 44.47 40.63 40.81 39.90 43.82 42.56 41.18 40.55 40.28 36.55 40.90 39.84 38.08 35.22 31.85
56.17 55.36 55.11 55.28 55.25 54.69 53.79 54.06 54.65 54.41 54.03 53.86 53.45 53.45 52.60 52.62 48.78 51.40 52.74 59.06 57.01 49.31 25.73 42.36 44.34 48.44 46.97 45.80 45.03 45.44 48.21 46.94 41.45 41.10 40.93 38.48 40.01 40.67 40.31 39.56 41.16 39.20 42.07 39.89 38.26 35.25 33.57
55.76 55.17 54.77 54.58 54.36 53.47 52.89 53.20 53.54 52.93 51.06 53.21 53.21 53.37 52.36 50.70 49.53 53.05 57.74 52.97 48.93 37.68 28.49 39.97 44.71 43.46 43.72 44.68 43.95 44.43 46.75 48.78 45.58 42.79 42.33 40.51 43.12 42.14 40.92 42.50 42.49 43.15 41.01 39.38 37.68 35.15 29.64
55.26 54.95 54.58 54.20 53.67 52.89 52.83 53.21 53.28 51.18 50.46 52.61 52.73 53.08 51.63 53.18 53.52 57.17 54.50 46.05 36.10 30.55 42.37 38.51 40.19 42.62 42.16 40.84 42.26 42.79 42.36 40.88 38.31 35.71 35.37 40.24 40.50 42.43 43.66 40.19 41.87 40.76 36.24 29.01 28.71 28.17 27.60
54.81 54.47 54.01 53.93 53.34 52.56 52.81 53.23 51.98 50.73 49.88 52.38 52.64 52.09 51.65 53.27 58.29 55.77 48.38 40.21 30.31 37.92 39.49 41.70 41.23 41.50 39.73 41.56 41.47 41.96 40.28 38.14 41.04 38.87 35.94 34.19 32.55 39.52 43.11 39.73 38.16 37.54 36.30 28.79 27.32 26.19 28.13
53.91 54.08 53.63 53.46 52.95 52.68 52.93 52.52 50.79 50.37 50.02 52.30 52.07 50.12 53.56 57.13 56.69 51.29 43.62 32.90 33.86 39.64 42.22 41.35 41.64 38.82 38.08 41.28 41.57 40.41 37.93 37.60 38.78 39.53 36.64 34.52 34.40 40.81 41.43 42.44 40.76 37.37 33.62 37.05 31.17 29.69 26.90
51.74 53.93 53.26 52.93 52.29 52.39 52.05 51.04 50.24 50.09 51.17 52.24 51.91 52.63 52.59 56.64 54.54 48.89 39.83 35.89 40.41 45.50 43.86 42.75 37.20 39.82 36.38 38.61 38.83 38.56 38.14 41.22 39.67 41.13 41.63 39.56 33.94 39.29 40.54 41.97 41.82 38.10 40.44 33.04 30.43 23.21 23.40
51.46 53.44 52.95 52.13 51.91 51.47 50.79 50.16 49.96 49.83 51.74 52.19 49.61 45.52 50.18 55.26 48.70 42.85 34.86 37.43 43.99 47.37 46.21 42.36 40.34 38.85 39.25 38.60 39.15 37.88 38.61 41.01 42.17 42.13 41.95 39.16 36.06 35.41 38.95 36.21 35.07 37.24 34.87 34.10 33.75 29.52 23.87
52.66 52.47 51.99 51.73 51.68 50.37 50.04 49.78 50.03 49.57 51.78 52.15 45.71 40.31 52.99 47.74 39.57 38.36 38.18 42.84 44.72 44.46 46.03 45.64 44.61 41.99 39.94 39.94 39.33 38.61 38.91 40.61 43.97 43.17 38.10 39.03 35.25 30.76 33.61 38.36 40.09 37.41 35.84 34.19 25.60 27.53 27.73
52.75 51.74 51.38 51.69 50.91 49.79 49.72 49.71 49.92 49.99 52.15 50.84 46.05 48.77 54.36 46.24 34.19 35.80 40.76 43.28 44.91 43.30 43.35 43.77 42.82 44.20 43.70 40.95 37.90 39.60 40.42 43.93 42.47 41.29 39.40 39.47 33.37 27.97 31.92 35.51 38.08 35.45 35.83 35.38 32.54 29.55 27.69
51.56 51.11 51.31 51.40 50.86 49.61 49.68 49.73 49.93 50.76 51.89 50.90 46.59 41.89 45.62 46.04 40.52 39.70 39.22 40.24 41.58 45.45 44.68 45.08 43.93 44.72 42.44 40.29 41.84 39.11 39.78 42.98 42.46 41.22 44.01 42.15 35.38 31.76 28.49 30.34 33.47 31.22 33.04 34.67 33.06 25.78 27.55
50.98 50.83 50.94 50.70 49.99 49.59 49.23 49.61 49.96 51.03 51.33 52.05 45.32 41.86 43.91 38.47 41.48 39.19 40.63 41.97 41.57 40.82 44.69 45.00 42.85 42.90 41.25 37.37 38.11 38.24 40.66 40.94 41.85 43.33 41.31 38.59 32.98 33.37 33.16 33.67 33.38 32.20 32.15 32.47 31.58 30.78 28.30
50.84 50.70 50.16 50.20 48.95 48.99 49.13 49.71 49.79 51.11 51.24 49.75 46.88 42.69 41.16 38.27 44.37 41.82 39.73 41.35 41.88 42.62 43.02 41.33 41.65 42.12 41.39 39.52 40.16 38.58 40.40 38.41 36.19 40.11 38.43 39.02 31.97 32.08 31.21 33.17 32.59 30.96 32.87 32.44 31.46 30.94 31.58
50.65 50.26 49.83 48.74 48.68 48.77 49.06 48.95 50.50 50.89 51.33 48.60 49.19 49.53 44.07 38.99 39.69 39.76 39.75 42.04 43.33 44.72 44.66 44.71 43.75 41.07 38.46 40.89 42.40 42.28 41.76 41.58 40.70 39.29 37.35 35.06 31.03 28.65 25.18 28.88 27.25 23.55 30.66 32.39 33.14 33.90 33.27
50.23 50.21 49.30 48.42 48.79 48.87 48.53 48.58 49.18 50.80 51.12 52.45 51.42 48.90 42.20 34.04 36.78 40.49 43.36 43.35 43.39 43.36 42.96 43.79 43.59 40.68 42.31 43.59 42.26 41.23 40.01 41.20 41.63 39.96 39.42 32.21 29.18 24.03 19.87 22.06 15.94 30.71 34.42 35.62 34.40 35.21 36.15
49.73 49.68 48.56 48.95 48.83 48.53 47.99 48.04 48.43 49.84 50.20 53.50 51.95 47.92 41.60 32.38 37.97 41.32 43.37 43.41 43.89 44.01 42.94 43.67 45.05 44.32 44.30 39.15 33.93 32.93 29.83 32.77 34.18 37.75 36.05 35.82 28.65 24.23 18.85 20.69 26.98 31.44 35.66 34.83 33.52 32.90 38.17
49.55 48.52 49.13 48.74 48.60 49.79 49.53 48.81 47.76 48.81 48.59 53.56 52.08 49.55 46.08 39.69 39.95 45.23 43.09 42.76 39.86 39.00 40.32 41.92 45.94 44.41 40.65 32.03 29.18 25.45 25.85 30.38 30.49 34.12 37.74 34.62 30.74 26.31 19.42 15.27 14.67 29.40 35.45 39.14 37.38 28.92 37.90
48.29 48.81 48.81 48.93 49.42 49.71 49.50 49.48 49.64 49.99 50.78 54.11 52.26 51.96 47.99 42.80 44.73 44.82 42.19 42.39 43.07 40.61 37.44 41.21 42.60 40.62 39.09 26.92 20.82 22.29 25.66 31.86 28.50 27.32 27.83 27.38 23.77 21.31 14.54 14.01 24.89 32.23 37.48 38.57 28.39 29.61 38.59
48.11 48.29 48.66 49.92 49.72 49.69 49.53 49.61 49.92 50.47 51.28 54.92 52.36 53.05 49.27 44.37 46.18 48.16 48.61 44.71 43.67 41.82 38.07 41.65 39.64 38.24 32.13 28.84 24.99 24.57 23.08 29.66 29.85 32.26 31.86 29.64 27.41 26.48 21.93 14.00 21.63 36.18 37.56 33.02 35.67 35.80 38.65
47.92 48.17 49.06 50.18 50.05 50.23 49.89 49.58 49.97 51.20 51.30 54.08 52.75 52.92 51.86 48.16 47.20 49.18 48.81 49.46 48.59 45.89 44.01 40.87 41.48 39.86 38.35 31.34 24.58 25.45 25.65 31.40 27.68 25.79 34.56 28.88 31.50 28.16 29.31 29.12 35.46 37.11 36.64 38.15 38.61 38.20 37.91

GFSGBSN_sfc_wetblb_045.txt.gz
Wetbulb
60.35 60.03 59.51 59.17 58.92 58.52 58.02 57.94 57.36 57.06 56.97 56.63 56.55 56.81 56.82 56.94 56.39 56.03 55.07 54.58 55.43 56.19 56.21 56.27 56.62 56.78 53.92 50.87 51.01 59.65 62.54 62.03 56.78 53.65 52.42 50.80 49.97 49.63 47.06 47.05 45.53 44.51 45.04 45.30 47.07 49.12 47.22
60.00 59.40 59.00 58.76 58.79 58.62 58.03 57.67 57.22 56.86 56.75 56.39 56.31 56.35 56.35 56.53 56.61 56.71 56.33 55.82 55.68 55.46 55.78 55.93 56.42 56.42 52.44 45.62 54.50 59.59 57.90 55.47 54.89 53.27 51.86 52.49 51.61 52.63 48.68 46.35 44.99 45.60 44.96 44.29 46.02 48.26 47.04
60.24 59.55 58.91 58.40 58.38 58.08 57.75 56.97 56.82 56.71 56.35 56.01 56.21 56.19 56.28 56.42 56.32 56.12 56.02 55.62 55.08 54.97 55.38 55.75 56.13 54.72 52.06 50.75 55.81 56.77 55.88 55.48 55.04 53.81 51.83 52.72 54.24 51.21 50.45 46.16 46.38 45.68 43.50 44.74 45.22 45.45 45.41
60.01 59.50 58.93 58.15 57.77 57.04 56.60 56.41 56.35 56.37 56.19 56.01 56.37 56.08 55.68 55.32 55.04 55.04 54.92 54.74 54.51 54.77 55.18 55.57 55.95 54.12 49.37 56.43 56.86 55.13 55.24 53.75 55.02 54.98 53.88 54.63 55.02 52.44 48.66 48.58 46.28 44.37 44.04 40.95 44.91 45.55 45.10
59.53 59.39 59.05 58.14 57.38 56.68 56.19 55.93 55.76 55.99 55.95 55.87 55.94 55.78 55.18 54.62 54.13 54.11 53.87 53.84 54.02 54.63 55.04 55.50 52.91 52.82 48.72 56.77 54.05 54.94 55.08 52.38 53.76 53.46 54.19 52.76 53.15 48.95 47.71 44.63 43.00 42.68 39.22 40.99 42.93 46.13 45.71
60.00 59.20 58.69 58.02 57.26 56.72 56.17 55.87 55.56 55.28 55.22 55.48 55.56 55.34 55.04 54.35 53.88 53.40 52.78 53.49 54.30 54.34 53.82 54.71 54.09 48.99 51.19 50.26 53.73 51.82 54.21 54.27 53.27 53.39 51.45 51.47 48.36 45.73 44.33 43.05 37.92 39.61 39.96 40.75 41.73 44.54 44.91
57.26 59.29 58.53 57.90 57.27 56.94 56.52 56.23 55.66 55.01 54.83 55.36 55.42 55.02 54.69 54.17 53.65 52.80 51.70 50.16 48.71 47.78 50.71 47.62 48.27 48.06 50.12 53.70 53.39 50.46 52.54 54.18 52.83 50.89 46.86 47.54 45.34 42.80 43.20 43.42 42.56 42.06 40.96 40.74 42.24 43.92 43.33
56.76 58.66 58.32 57.74 57.27 57.07 56.99 56.54 55.64 54.69 54.73 55.08 54.75 54.49 54.23 53.84 53.28 53.12 50.53 47.54 49.45 52.83 48.37 50.59 50.84 50.77 52.72 53.40 49.36 49.92 54.33 50.92 50.00 46.12 47.11 45.57 41.94 44.16 45.43 43.99 43.18 42.17 40.87 40.39 42.59 43.24 43.89
54.59 56.61 57.78 57.35 57.01 56.83 56.73 56.57 55.54 54.57 54.53 54.53 54.01 54.11 53.80 53.26 53.13 51.36 49.30 50.82 56.09 55.82 49.88 48.92 50.82 50.12 49.84 52.09 48.57 48.15 52.38 50.58 47.48 45.45 43.90 43.28 43.92 45.86 45.25 43.98 43.75 42.40 41.57 41.06 41.37 42.71 43.34
54.43 53.94 56.93 56.99 56.65 56.32 56.12 56.05 55.56 54.67 54.63 54.21 53.73 53.66 53.05 52.51 50.10 49.26 48.40 53.94 54.44 55.58 40.36 42.62 46.58 49.19 50.10 50.65 48.10 50.39 51.46 50.22 46.85 44.07 43.21 44.25 46.10 44.42 43.76 43.06 43.82 40.89 44.28 42.72 41.43 40.44 38.51
53.28 53.15 55.30 56.09 55.77 55.18 54.89 54.85 54.65 54.53 54.45 54.05 53.49 53.58 52.63 52.43 49.91 49.08 52.65 59.63 57.42 52.04 29.09 43.98 46.08 51.12 49.22 47.66 47.69 48.35 51.41 49.85 44.92 44.08 44.55 42.73 44.06 43.59 43.14 42.99 44.87 42.59 44.73 43.35 41.59 40.82 40.13
52.72 52.87 54.20 55.54 54.97 54.37 54.09 53.53 53.14 53.49 53.41 52.13 51.66 53.18 52.57 51.52 50.30 53.09 57.35 55.17 51.93 39.74 31.26 41.77 45.92 45.01 45.59 46.86 46.55 47.94 49.84 50.15 48.15 45.52 45.63 44.04 47.01 45.81 45.20 44.94 45.12 45.48 44.47 43.15 42.03 40.96 36.20
52.05 52.59 52.36 55.34 54.55 54.22 53.92 53.24 52.85 53.27 52.48 51.27 51.27 52.94 52.27 52.51 51.21 58.65 56.10 49.47 39.04 33.54 43.28 40.02 41.63 44.53 44.84 44.03 44.35 45.74 44.31 44.10 42.56 40.24 39.99 43.16 43.53 45.48 46.54 44.53 45.61 44.78 41.93 35.65 34.11 34.68 33.59
51.64 51.95 51.75 54.71 54.34 53.72 53.33 52.87 52.59 52.79 51.48 50.24 51.62 52.03 51.98 52.85 55.74 56.55 50.39 42.31 34.05 38.30 40.37 43.66 42.61 43.13 41.98 43.76 43.88 44.08 43.12 41.82 44.06 42.29 39.63 38.35 36.62 43.17 45.12 44.34 43.14 41.91 41.77 36.82 29.65 31.18 34.43
51.11 51.64 51.18 53.68 54.12 53.41 52.93 52.55 52.63 51.94 50.36 49.80 52.00 50.93 51.42 54.94 55.19 53.53 45.18 35.67 35.78 39.05 43.73 41.75 42.68 40.74 41.56 43.99 43.44 43.00 41.32 40.98 42.58 43.60 40.17 38.73 37.99 44.41 44.30 46.00 45.21 41.62 38.99 41.38 35.29 33.36 32.79
50.64 51.16 51.62 52.71 53.47 52.86 52.24 52.27 52.32 51.16 49.97 51.75 50.74 49.89 51.98 57.93 57.32 49.72 41.84 36.81 39.84 45.55 45.34 43.77 38.63 41.49 38.75 41.53 41.46 41.57 41.80 44.15 42.75 44.16 45.90 42.29 37.63 42.44 43.44 45.32 44.78 43.42 43.34 37.73 36.53 28.79 27.26
49.97 51.17 51.58 50.80 52.82 52.00 51.94 52.01 51.24 50.51 49.97 52.03 52.06 48.57 52.56 56.98 51.53 44.95 37.20 38.19 43.57 48.06 47.18 43.28 41.75 40.77 41.29 41.04 41.65 40.77 41.14 43.97 44.97 44.35 45.56 42.87 40.80 39.44 42.50 40.45 40.79 41.32 39.39 37.77 38.13 34.63 29.64
49.48 50.31 51.00 50.23 52.82 51.82 51.65 51.44 50.41 49.78 50.45 51.21 46.98 41.64 54.41 50.12 42.11 39.79 38.45 41.90 45.31 45.83 47.34 46.77 45.67 43.99 42.32 42.57 41.68 41.06 41.28 43.44 45.95 46.48 42.83 42.68 39.63 36.16 38.30 42.44 43.83 42.39 40.22 39.54 34.30 31.69 32.34
49.35 49.97 50.11 49.99 52.39 51.43 50.82 50.42 50.14 49.54 51.92 50.63 44.32 48.99 55.12 47.83 36.97 37.36 42.08 44.17 46.03 44.91 45.35 45.89 45.48 46.12 46.03 42.80 40.23 42.08 42.94 45.84 44.90 44.88 42.95 42.78 37.86 33.65 36.10 39.81 42.16 40.59 40.18 37.73 35.89 35.12 32.49
49.18 49.68 49.23 49.82 52.19 51.11 50.50 49.87 49.61 49.57 51.86 51.88 48.83 43.43 47.60 45.40 42.46 41.07 40.68 41.23 43.09 46.96 46.66 46.46 45.19 46.30 44.68 42.73 43.51 41.15 42.26 45.09 45.24 44.49 43.82 44.25 37.91 36.82 34.31 36.01 38.40 36.60 37.49 37.70 37.99 33.53 32.58
49.14 49.52 49.00 50.62 51.14 50.61 50.14 50.08 49.63 49.58 50.89 51.06 46.69 43.83 46.38 40.52 40.91 41.02 42.71 42.78 42.55 42.93 46.93 46.75 45.03 44.97 43.46 39.85 40.86 40.52 42.89 43.10 44.04 44.37 43.81 42.88 37.43 37.12 36.23 36.39 36.90 36.61 36.04 36.94 36.12 36.12 34.95
49.43 49.34 48.85 51.00 50.52 50.15 49.92 49.82 49.47 49.49 51.22 51.04 45.30 42.62 42.01 41.25 44.04 41.60 41.23 42.19 42.76 44.12 44.90 44.42 43.56 44.34 44.69 41.65 42.83 40.56 42.40 41.40 40.34 43.15 42.24 41.12 36.47 36.34 34.80 35.16 34.76 34.97 36.43 35.74 35.58 35.26 36.12
50.12 49.28 50.68 50.25 49.65 49.56 49.45 49.42 49.17 50.28 51.55 49.88 50.17 48.81 44.92 39.11 41.36 39.19 39.65 42.59 43.59 45.84 45.89 45.57 45.42 43.49 41.95 44.44 45.07 43.84 43.68 43.30 43.04 42.29 39.74 38.07 36.20 34.01 30.67 31.14 31.12 30.18 34.97 36.62 36.31 37.10 38.09
50.54 50.57 50.25 49.84 49.45 49.40 49.04 48.81 48.87 50.82 51.19 52.93 51.51 48.85 41.74 34.82 39.71 39.97 43.09 44.52 44.02 45.22 44.36 45.30 45.48 43.93 44.60 46.54 44.86 44.77 43.16 42.49 42.41 39.99 40.62 35.03 32.36 29.32 29.51 26.87 25.16 36.25 38.50 38.35 37.40 37.74 38.70
50.19 50.16 49.70 49.29 48.80 48.97 48.55 48.25 49.02 50.55 51.03 54.12 52.48 48.67 42.14 33.65 38.84 40.84 43.54 44.04 44.47 44.88 44.53 44.91 46.00 45.40 45.95 42.72 38.84 36.50 35.09 35.73 36.84 38.29 37.01 37.69 33.12 28.01 29.72 27.22 31.12 34.96 35.52 37.53 36.59 37.17 40.94
49.71 49.23 48.79 48.68 48.56 48.36 47.91 47.86 48.90 50.33 50.25 54.37 52.81 50.52 46.04 38.99 38.52 44.36 43.87 44.04 41.66 41.21 42.60 43.89 46.07 45.92 42.47 35.82 34.39 31.73 32.15 35.44 33.79 36.82 39.10 36.33 34.52 34.20 26.79 27.38 24.70 34.10 38.16 42.30 41.50 34.38 40.70
48.73 48.64 48.74 48.34 47.88 47.79 47.70 47.99 48.53 50.03 49.80 54.38 53.06 51.68 49.83 44.26 46.95 46.38 43.56 43.40 44.18 42.38 40.16 42.46 43.56 43.89 42.80 33.39 31.23 32.50 33.07 34.95 32.27 30.20 31.46 33.50 31.27 31.47 23.10 29.16 30.97 36.32 40.03 41.94 32.84 35.58 40.64
48.06 48.09 47.99 48.01 48.43 49.20 48.93 48.19 48.57 49.87 50.31 53.78 52.34 53.68 51.18 45.90 47.49 49.66 49.70 44.61 44.20 44.16 41.22 43.41 42.51 41.85 36.87 34.67 34.07 31.74 32.97 34.06 33.77 34.89 34.61 33.51 31.47 29.81 25.47 26.74 28.24 38.49 40.83 37.57 41.74 40.75 41.80
47.75 47.83 48.59 49.11 49.19 49.18 49.38 49.53 49.62 50.38 51.44 53.62 51.58 54.11 52.78 49.06 47.98 50.27 49.98 50.53 50.80 48.54 45.28 43.08 44.26 42.03 41.97 36.13 32.60 31.52 32.46 32.94 32.09 32.61 36.63 33.36 36.45 34.10 33.80 35.03 40.08 40.36 41.60 42.42 41.83 41.27 42.41

GFSGBSN_sfc_wetblb_048.txt.gz
Wetbulb
61.38 60.97 60.43 59.86 59.54 59.24 59.23 58.70 58.08 57.36 56.95 56.97 56.91 56.67 56.82 56.95 57.15 56.29 56.07 55.35 55.64 56.07 56.47 56.28 56.52 56.78 57.12 53.97 53.06 62.58 62.65 62.01 59.94 57.48 55.66 54.79 52.43 50.93 47.60 49.08 50.29 48.69 48.17 52.72 55.05 55.10 54.09
61.06 60.41 59.94 59.60 59.34 59.24 59.23 58.84 58.14 57.16 56.91 56.67 56.37 56.08 56.40 56.79 56.99 56.98 56.62 56.10 55.86 55.92 55.82 55.77 56.31 56.53 55.81 49.21 57.05 62.04 60.71 59.47 58.34 56.80 56.08 55.72 53.10 53.37 51.77 50.32 49.32 50.14 49.04 51.93 50.18 53.77 51.77
59.15 60.35 59.72 59.16 58.64 58.73 58.77 58.17 57.57 56.96 56.69 56.21 56.04 55.94 56.12 56.44 56.48 56.30 56.20 55.84 55.40 55.46 55.30 55.63 56.11 56.96 54.07 53.12 58.82 61.77 59.38 57.94 58.92 57.74 55.12 56.88 56.38 54.04 53.64 47.61 48.51 48.07 45.48 46.76 48.11 52.57 52.09
58.01 59.90 60.11 59.03 58.23 57.80 57.68 57.26 56.92 56.80 56.57 56.11 56.13 56.02 55.64 55.66 55.52 55.15 55.13 54.89 54.79 55.09 55.04 55.49 55.82 57.11 52.34 58.33 60.43 58.69 59.60 58.00 58.95 58.97 56.81 56.64 56.86 54.41 52.29 50.16 48.93 46.56 47.38 44.39 48.05 51.91 48.90
57.03 57.83 59.94 59.27 58.20 57.54 56.95 56.65 56.41 56.51 56.29 55.94 55.68 55.48 55.27 54.81 54.61 54.41 54.34 54.26 54.36 54.61 54.89 55.66 56.48 55.59 51.67 59.38 55.88 57.82 58.32 54.20 56.16 56.83 56.86 55.82 56.21 52.29 49.91 47.31 45.17 45.50 41.99 44.10 44.57 49.04 48.68
56.42 57.50 57.86 59.21 58.22 57.47 56.89 56.45 55.92 55.78 55.58 55.21 55.15 55.50 55.25 54.55 54.22 53.67 53.56 53.93 54.34 54.76 55.44 57.01 56.76 53.00 55.92 52.35 55.81 56.88 56.35 56.06 55.65 54.77 52.82 52.41 52.14 49.08 48.20 45.95 40.81 42.63 42.57 43.70 43.62 46.83 48.79
55.90 55.99 56.96 58.62 58.40 57.90 57.39 56.73 55.88 55.23 55.09 55.03 55.13 55.42 55.09 54.47 54.10 53.45 53.96 55.66 53.75 52.85 54.15 51.85 51.00 52.01 52.50 56.43 57.00 53.79 54.90 55.69 55.42 53.77 48.06 51.77 48.34 44.42 46.53 47.26 47.11 46.52 44.92 43.72 46.13 47.89 48.10
55.62 56.58 57.00 57.31 58.56 58.13 57.87 57.12 55.90 55.13 54.83 54.77 54.97 55.05 54.49 54.22 53.99 53.55 55.32 52.71 53.76 56.93 51.50 54.33 53.68 53.30 54.98 55.81 51.58 52.77 56.19 51.42 50.81 47.41 50.65 48.82 45.70 47.79 48.41 47.51 46.85 46.11 45.21 44.84 46.23 47.06 48.53
54.35 55.44 55.37 56.60 58.51 57.93 57.85 57.35 55.94 55.03 54.58 54.44 54.79 54.38 54.22 53.69 53.41 54.04 54.35 54.12 60.65 58.70 53.65 51.77 53.71 52.03 52.49 54.58 50.83 50.83 54.04 52.56 49.14 47.66 47.98 47.03 46.86 48.78 48.19 47.39 46.42 46.52 45.78 45.44 45.01 46.59 48.30
53.40 54.36 54.38 55.14 57.37 57.70 57.16 56.86 56.06 55.25 54.36 54.11 54.26 54.00 53.48 52.68 51.61 55.96 52.74 56.79 58.13 58.15 47.85 45.88 48.99 51.61 52.49 53.76 49.83 53.44 54.48 52.43 50.26 47.41 48.15 47.77 48.85 48.12 48.21 46.61 47.73 44.73 47.47 46.90 46.00 45.62 42.39
52.76 53.31 53.89 53.73 55.21 56.32 55.66 55.50 55.60 55.17 54.58 54.46 54.00 53.80 53.10 52.80 55.75 52.43 57.49 59.78 61.22 58.78 34.30 47.29 49.07 54.76 53.27 50.67 50.76 50.76 55.15 52.55 47.99 47.88 47.56 46.05 47.29 47.38 46.57 46.44 47.85 45.83 48.20 47.41 46.57 45.93 45.16
52.30 52.55 53.11 53.21 53.73 55.26 54.93 54.61 54.61 54.26 53.97 53.96 52.07 53.22 52.94 53.48 55.53 57.84 61.18 62.53 60.29 45.72 34.40 44.42 49.28 48.26 48.72 49.59 49.08 51.09 52.17 53.55 52.26 48.95 49.69 48.48 50.64 49.76 48.61 48.88 49.37 50.04 48.68 48.10 47.93 46.45 39.87
51.53 51.88 52.65 52.82 52.80 54.87 54.89 54.48 53.89 53.63 53.36 52.82 51.41 52.80 53.99 57.25 53.24 63.57 62.80 58.17 45.09 38.35 46.08 43.33 45.06 47.69 47.30 46.36 47.40 48.62 48.72 48.13 46.38 44.08 44.70 47.27 47.34 49.58 50.00 48.08 49.62 49.23 46.21 40.15 37.79 38.36 37.31
50.86 51.26 51.87 52.51 52.24 54.45 54.59 53.92 53.39 52.75 52.89 51.89 50.74 52.16 54.06 56.94 60.03 60.81 59.06 50.38 38.39 42.21 43.48 46.70 46.61 46.99 44.53 47.24 46.92 47.71 47.61 45.91 48.16 47.67 45.66 42.85 40.44 46.55 48.57 48.21 46.50 46.52 45.54 40.01 31.13 34.70 39.52
50.38 50.72 51.20 51.89 52.10 52.92 54.28 53.93 52.91 52.64 51.96 50.86 51.56 54.78 55.84 57.52 58.60 59.09 53.94 42.68 41.95 44.29 47.40 45.43 46.15 43.95 44.25 46.34 46.38 47.03 46.83 46.65 47.58 48.76 43.87 43.14 41.81 47.87 47.90 49.51 48.98 45.88 43.84 46.52 40.61 40.00 38.73
49.99 50.11 50.66 51.31 51.49 51.57 53.53 53.24 52.59 52.19 51.30 50.51 54.28 53.65 54.54 60.90 60.16 56.09 50.26 42.48 45.57 49.01 48.09 47.56 42.19 44.94 42.43 44.76 44.43 45.37 45.98 47.65 46.88 48.18 50.56 46.90 41.29 46.06 46.98 48.98 48.83 47.86 48.72 41.34 43.06 32.57 31.47
49.26 49.66 50.14 50.77 50.98 50.94 53.09 52.94 52.17 51.60 50.83 51.18 54.70 49.92 58.73 62.72 61.61 53.70 45.20 45.86 46.99 51.44 50.68 46.60 44.62 44.09 45.21 44.85 45.70 44.44 45.49 47.08 48.32 47.88 50.35 49.13 46.20 43.65 45.96 45.10 44.82 45.05 44.30 44.19 44.05 41.11 34.68
48.49 48.79 49.35 50.07 51.00 50.69 52.61 52.62 51.76 50.91 50.39 51.20 53.63 46.68 59.47 61.02 50.10 51.43 46.99 47.79 46.65 49.58 50.96 49.08 49.34 47.54 46.14 46.93 45.79 44.97 44.86 47.12 49.77 49.96 47.27 48.00 46.97 42.09 43.48 46.53 47.85 46.92 45.53 45.54 39.49 37.08 40.19
48.32 48.62 49.12 50.03 50.91 50.47 51.61 52.00 51.02 50.59 51.18 53.62 50.90 52.68 56.80 54.52 46.67 46.41 48.56 47.57 49.21 48.69 49.39 49.26 48.42 49.51 50.01 47.75 44.48 46.81 47.53 48.30 48.92 48.94 48.34 48.06 44.90 39.77 40.47 44.22 46.32 44.35 45.91 45.21 42.95 42.93 38.42
48.11 48.50 49.00 49.79 50.71 50.35 51.59 51.47 50.43 50.30 51.28 55.81 52.10 48.39 52.59 52.88 52.52 49.22 46.82 46.32 45.92 50.77 49.90 50.28 49.44 50.74 49.29 47.24 48.42 46.25 46.76 47.34 47.91 48.40 44.22 47.59 45.59 43.52 39.64 41.51 45.06 41.85 43.57 44.38 43.47 38.27 38.82
47.72 48.34 48.77 49.46 50.13 49.69 51.43 51.16 50.39 50.27 50.96 54.66 53.61 49.51 52.39 47.04 47.60 48.55 49.10 47.38 45.41 46.71 50.05 51.24 49.04 49.94 48.92 45.37 46.07 45.80 47.49 46.02 47.49 45.31 48.28 48.63 43.23 43.08 41.97 41.80 42.01 42.41 42.54 43.26 41.66 42.51 38.91
47.58 48.04 48.49 49.11 49.38 49.46 50.81 50.43 49.87 49.96 50.81 52.38 50.90 50.09 50.50 50.97 49.70 47.62 45.33 46.46 45.73 47.64 49.04 48.37 48.83 49.94 50.29 47.77 48.14 46.48 48.06 47.30 46.80 48.00 47.90 46.65 42.87 42.11 39.89 40.51 40.45 39.40 42.10 42.78 43.72 43.77 42.80
47.92 48.33 48.56 49.05 49.13 49.47 50.70 50.04 49.54 49.84 51.65 53.96 56.90 54.23 53.74 44.93 47.19 46.11 45.92 46.74 46.85 50.94 49.02 49.63 51.88 50.18 48.81 49.03 50.75 51.95 50.73 50.27 49.48 48.30 46.51 45.44 43.37 40.51 36.62 37.59 37.90 36.38 41.21 42.83 43.09 44.33 43.95
47.90 48.51 48.68 49.10 48.72 49.20 50.20 49.44 49.25 49.52 51.92 58.33 58.75 55.04 52.76 44.32 45.04 45.90 46.66 48.44 48.73 50.50 49.56 49.00 51.08 50.56 48.72 52.51 52.34 51.42 50.02 48.54 48.06 46.21 47.14 42.99 42.31 39.25 37.16 33.59 31.88 40.96 43.30 43.28 43.85 44.99 45.83
47.82 48.25 48.99 49.14 48.90 49.07 49.58 49.00 48.98 49.21 50.66 57.62 60.09 55.77 51.02 40.62 46.71 46.48 47.32 48.89 49.76 49.98 49.17 49.55 49.19 50.54 52.73 50.19 47.19 43.41 43.53 43.39 43.65 43.95 43.88 44.97 41.92 35.34 37.19 34.36 38.30 40.53 40.46 39.89 39.71 40.98 45.51
47.71 48.25 48.84 48.87 49.37 49.13 48.82 48.65 48.81 49.20 50.60 54.61 60.15 57.36 54.67 46.62 44.51 49.02 48.32 50.15 48.68 49.25 48.50 46.47 48.87 50.97 48.87 47.68 45.52 41.04 39.04 42.08 39.81 41.51 43.41 42.36 43.09 42.22 34.74 35.67 33.49 39.92 42.76 45.98 45.27 38.28 45.56
48.87 49.45 49.33 49.53 48.91 48.46 48.37 48.53 48.65 49.16 50.87 56.67 58.66 57.20 56.70 50.95 49.94 51.19 48.85 48.93 52.13 50.78 48.79 46.94 47.05 47.35 48.27 45.48 38.35 41.04 41.20 41.69 38.65 37.07 35.70 38.90 38.58 38.15 36.31 37.18 38.54 42.94 44.27 46.02 36.06 38.99 46.23
49.27 48.94 48.54 48.56 48.16 48.12 48.10 48.14 48.55 49.29 50.70 55.96 56.32 58.11 58.19 51.97 51.76 53.13 52.34 50.64 50.16 52.27 48.65 48.39 48.08 47.49 46.69 43.71 39.98 41.63 42.08 41.35 40.14 41.13 39.72 39.40 38.24 36.18 34.88 34.68 33.16 44.06 44.33 40.72 45.88 47.36 47.11
48.19 48.11 47.89 47.59 47.43 47.54 47.86 47.89 48.27 49.84 50.87 53.34 55.40 57.14 58.46 54.53 51.99 54.22 53.52 53.97 53.69 53.54 52.24 50.34 51.17 49.63 50.62 46.64 43.87 42.37 38.65 36.78 41.23 39.64 42.28 38.83 43.13 42.16 41.24 42.04 44.71 46.31 47.69 48.65 47.32 46.36 47.47